SJX511 YSSY-RCTP

Flight info

Callsign SJX511
Flight time 9h 6m
Altitude 34000
Route TESAT H530 LASUD Q238 DUPUG/N0502F330 Q141 ESKUT/N0502F340 Q141 OVRON B462 APISO/N0502F360 B462 PY B586 PIKOK DCT GALEE DCT 14N136E/N0492F380 21N131E DCT TUNTO R595 GRACE GRACE1A
Aircraft A359/H-SDE2E3GHIJ3J4J5LM1ORWXY/LB1D1

Departure

Time 2026-05-07 16:48
Airport Sydney Kingsford Smith International Airport (YSSY)

Arrival

Time 2026-05-08 01:54
Airport Taiwan Taoyuan International Airport (RCTP)
Time Latitude Longitude Altitude Speed Heading
2026-05-07 16:26 -33.93923 151.16991 25 ft 0 kts 269°
2026-05-07 16:37 -33.93923 151.16997 24 ft 2 kts 266°
2026-05-07 16:37 -33.93920 151.17018 26 ft 3 kts 255°
2026-05-07 16:37 -33.93916 151.17036 26 ft 3 kts 256°
2026-05-07 16:38 -33.93911 151.17057 25 ft 3 kts 237°
2026-05-07 16:38 -33.93902 151.17073 27 ft 3 kts 209°
2026-05-07 16:38 -33.93889 151.17079 26 ft 3 kts 178°
2026-05-07 16:38 -33.93870 151.17077 25 ft 3 kts 165°
2026-05-07 16:39 -33.93857 151.17072 25 ft 0 kts 166°
2026-05-07 16:40 -33.93862 151.17074 26 ft 2 kts 165°
2026-05-07 16:40 -33.93896 151.17084 26 ft 7 kts 166°
2026-05-07 16:41 -33.93954 151.17116 31 ft 12 kts 139°
2026-05-07 16:41 -33.93994 151.17211 30 ft 14 kts 132°
2026-05-07 16:41 -33.94079 151.17245 28 ft 14 kts 167°
2026-05-07 16:41 -33.94180 151.17273 28 ft 16 kts 167°
2026-05-07 16:42 -33.94294 151.17304 30 ft 17 kts 167°
2026-05-07 16:42 -33.94410 151.17336 32 ft 18 kts 167°
2026-05-07 16:42 -33.94536 151.17369 32 ft 20 kts 167°
2026-05-07 16:42 -33.94650 151.17400 32 ft 17 kts 167°
2026-05-07 16:43 -33.94778 151.17433 29 ft 21 kts 168°
2026-05-07 16:43 -33.94933 151.17471 29 ft 24 kts 168°
2026-05-07 16:43 -33.95077 151.17506 31 ft 13 kts 168°
2026-05-07 16:43 -33.95175 151.17530 27 ft 16 kts 168°
2026-05-07 16:44 -33.95292 151.17562 27 ft 18 kts 167°
2026-05-07 16:44 -33.95413 151.17596 29 ft 18 kts 167°
2026-05-07 16:44 -33.95538 151.17629 27 ft 19 kts 167°
2026-05-07 16:44 -33.95664 151.17663 30 ft 18 kts 167°
2026-05-07 16:45 -33.95791 151.17698 29 ft 20 kts 168°
2026-05-07 16:45 -33.95932 151.17733 28 ft 21 kts 168°
2026-05-07 16:45 -33.96076 151.17770 30 ft 21 kts 168°
2026-05-07 16:45 -33.96224 151.17809 28 ft 23 kts 168°
2026-05-07 16:46 -33.96381 151.17850 29 ft 23 kts 166°
2026-05-07 16:46 -33.96431 151.17985 30 ft 20 kts 83°
2026-05-07 16:46 -33.96415 151.18047 30 ft 3 kts 44°
2026-05-07 16:46 -33.96383 151.18059 30 ft 5 kts 345°
2026-05-07 16:47 -33.96300 151.18036 30 ft 31 kts 346°
2026-05-07 16:47 -33.95854 151.17918 28 ft 96 kts 348°
2026-05-07 16:47 -33.95025 151.17701 26 ft 150 kts 348°
2026-05-07 16:47 -33.93861 151.17388 227 ft 181 kts 342°
2026-05-07 16:48 -33.92653 151.17072 1017 ft 175 kts 342°
2026-05-07 16:48 -33.91406 151.16745 1415 ft 192 kts 340°
2026-05-07 16:48 -33.90004 151.16568 1581 ft 217 kts 358°
2026-05-07 16:48 -33.88462 151.16400 1670 ft 228 kts 329°
2026-05-07 16:49 -33.87267 151.15182 1857 ft 230 kts 296°
2026-05-07 16:49 -33.86526 151.13485 2398 ft 231 kts 288°
2026-05-07 16:49 -33.85850 151.11696 2881 ft 239 kts 290°
2026-05-07 16:49 -33.85036 151.09899 3318 ft 251 kts 295°
2026-05-07 16:50 -33.84028 151.08140 3804 ft 260 kts 301°
2026-05-07 16:50 -33.82863 151.06447 4296 ft 267 kts 306°
2026-05-07 16:50 -33.81590 151.04793 4810 ft 273 kts 308°
2026-05-07 16:50 -33.80249 151.03143 5342 ft 277 kts 309°
2026-05-07 16:51 -33.78884 151.01495 5933 ft 279 kts 309°
2026-05-07 16:51 -33.77515 150.99839 6578 ft 279 kts 309°
2026-05-07 16:51 -33.76146 150.98169 7164 ft 282 kts 308°
2026-05-07 16:51 -33.74784 150.96487 7761 ft 283 kts 307°
2026-05-07 16:52 -33.73412 150.94778 8356 ft 285 kts 307°
2026-05-07 16:52 -33.72027 150.93046 8963 ft 288 kts 306°
2026-05-07 16:52 -33.70641 150.91310 9574 ft 291 kts 306°
2026-05-07 16:52 -33.69232 150.89544 10172 ft 293 kts 305°
2026-05-07 16:53 -33.67797 150.87741 10541 ft 305 kts 305°
2026-05-07 16:53 -33.66303 150.85854 10767 ft 320 kts 306°
2026-05-07 16:53 -33.64730 150.83870 11013 ft 335 kts 306°
2026-05-07 16:53 -33.63082 150.81803 11258 ft 350 kts 307°
2026-05-07 16:54 -33.61368 150.79663 11484 ft 363 kts 307°
2026-05-07 16:54 -33.59580 150.77439 11755 ft 374 kts 307°
2026-05-07 16:54 -33.57739 150.75209 12199 ft 380 kts 309°
2026-05-07 16:54 -33.55827 150.72996 12743 ft 383 kts 309°
2026-05-07 16:55 -33.53893 150.70797 13259 ft 386 kts 310°
2026-05-07 16:55 -33.51935 150.68576 13786 ft 388 kts 310°
2026-05-07 16:55 -33.49970 150.66336 14265 ft 390 kts 309°
2026-05-07 16:55 -33.48005 150.64082 14724 ft 393 kts 309°
2026-05-07 16:56 -33.46026 150.61802 15181 ft 396 kts 309°
2026-05-07 16:56 -33.44043 150.59513 15663 ft 398 kts 309°
2026-05-07 16:56 -33.40030 150.54880 16659 ft 403 kts 309°
2026-05-07 16:57 -33.38006 150.52555 17125 ft 406 kts 309°
2026-05-07 16:57 -33.35990 150.50234 17651 ft 407 kts 309°
2026-05-07 16:57 -33.33947 150.47877 18114 ft 410 kts 309°
2026-05-07 16:57 -33.31896 150.45511 18576 ft 412 kts 309°
2026-05-07 16:58 -33.29819 150.43118 19038 ft 413 kts 309°
2026-05-07 16:58 -33.27754 150.40745 19550 ft 412 kts 309°
2026-05-07 16:58 -33.25685 150.38370 20073 ft 412 kts 309°
2026-05-07 16:58 -33.23617 150.35997 20552 ft 412 kts 309°
2026-05-07 16:59 -33.21549 150.33621 21041 ft 413 kts 309°
2026-05-07 16:59 -33.19475 150.31242 21527 ft 414 kts 309°
2026-05-07 16:59 -33.17397 150.28862 22066 ft 413 kts 309°
2026-05-07 16:59 -33.15327 150.26493 22603 ft 414 kts 309°
2026-05-07 17:00 -33.13241 150.24107 22951 ft 417 kts 309°
2026-05-07 17:00 -33.11148 150.21707 23421 ft 418 kts 309°
2026-05-07 17:00 -33.09061 150.19322 23932 ft 417 kts 309°
2026-05-07 17:00 -33.06943 150.16908 24300 ft 420 kts 309°
2026-05-07 17:01 -33.04833 150.14500 24612 ft 423 kts 309°
2026-05-07 17:01 -33.02696 150.12063 24952 ft 425 kts 309°
2026-05-07 17:01 -33.00551 150.09620 25297 ft 428 kts 309°
2026-05-07 17:01 -32.98400 150.07171 25633 ft 430 kts 309°
2026-05-07 17:02 -32.96230 150.04703 25967 ft 432 kts 309°
2026-05-07 17:02 -32.94047 150.02224 26303 ft 435 kts 309°
2026-05-07 17:02 -32.91847 149.99731 26617 ft 437 kts 310°
2026-05-07 17:02 -32.89639 149.97230 26944 ft 439 kts 310°
2026-05-07 17:03 -32.87421 149.94714 27267 ft 442 kts 310°
2026-05-07 17:03 -32.85203 149.92198 27570 ft 444 kts 310°
2026-05-07 17:03 -32.82955 149.89648 27897 ft 446 kts 310°
2026-05-07 17:03 -32.80701 149.87096 28219 ft 449 kts 310°
2026-05-07 17:04 -32.78441 149.84539 28542 ft 451 kts 310°
2026-05-07 17:04 -32.76162 149.81964 28843 ft 453 kts 310°
2026-05-07 17:04 -32.73873 149.79381 29147 ft 455 kts 310°
2026-05-07 17:04 -32.71564 149.76778 29417 ft 457 kts 310°
2026-05-07 17:05 -32.69256 149.74176 29692 ft 460 kts 311°
2026-05-07 17:05 -32.66925 149.71550 29982 ft 462 kts 311°
2026-05-07 17:05 -32.64591 149.68921 30244 ft 464 kts 311°
2026-05-07 17:05 -32.62244 149.66282 30473 ft 466 kts 311°
2026-05-07 17:06 -32.59896 149.63644 30763 ft 465 kts 311°
2026-05-07 17:06 -32.57577 149.61039 31128 ft 463 kts 311°
2026-05-07 17:06 -32.55359 149.58246 31470 ft 457 kts 306°
2026-05-07 17:06 -32.53342 149.55412 31775 ft 455 kts 305°
2026-05-07 17:07 -32.51307 149.52488 32090 ft 454 kts 305°
2026-05-07 17:07 -32.49340 149.49632 32382 ft 452 kts 304°
2026-05-07 17:07 -32.47359 149.46750 32681 ft 451 kts 305°
2026-05-07 17:07 -32.45385 149.43879 32971 ft 449 kts 305°
2026-05-07 17:08 -32.43411 149.41014 33261 ft 448 kts 305°
2026-05-07 17:08 -32.41441 149.38165 33545 ft 447 kts 305°
2026-05-07 17:08 -32.39473 149.35323 33818 ft 446 kts 305°
2026-05-07 17:08 -32.37507 149.32487 34090 ft 444 kts 305°
2026-05-07 17:09 -32.35548 149.29662 34264 ft 445 kts 305°
2026-05-07 17:09 -32.33579 149.26825 34297 ft 449 kts 306°
2026-05-07 17:09 -32.29598 149.21093 34305 ft 452 kts 306°
2026-05-07 17:10 -32.25608 149.15365 34297 ft 450 kts 306°
2026-05-07 17:10 -32.21625 149.09654 34300 ft 451 kts 306°
2026-05-07 17:11 -32.17633 149.03943 34301 ft 451 kts 306°
2026-05-07 17:11 -32.13637 148.98229 34306 ft 452 kts 306°
2026-05-07 17:12 -32.09365 148.92757 34308 ft 457 kts 315°
2026-05-07 17:12 -32.03936 148.88744 34310 ft 469 kts 332°
2026-05-07 17:13 -31.97528 148.86907 34316 ft 483 kts 349°
2026-05-07 17:13 -31.90793 148.86375 34313 ft 486 kts 351°
2026-05-07 17:14 -31.84035 148.85968 34311 ft 486 kts 351°
2026-05-07 17:14 -31.77327 148.85526 34319 ft 486 kts 351°
2026-05-07 17:15 -31.70572 148.85047 34314 ft 486 kts 351°
2026-05-07 17:15 -31.63822 148.84560 34315 ft 486 kts 351°
2026-05-07 17:16 -31.57072 148.84073 34321 ft 486 kts 351°
2026-05-07 17:16 -31.50339 148.83590 34307 ft 486 kts 350°
2026-05-07 17:17 -31.43583 148.83107 34313 ft 486 kts 350°
2026-05-07 17:17 -31.36832 148.82626 34308 ft 486 kts 350°
2026-05-07 17:18 -31.30082 148.82145 34303 ft 486 kts 350°
2026-05-07 17:18 -31.23334 148.81664 34304 ft 486 kts 350°
2026-05-07 17:19 -31.17725 148.81265 34303 ft 486 kts 350°
2026-05-07 17:19 -31.09852 148.80706 34303 ft 486 kts 349°
2026-05-07 17:20 -31.04249 148.80310 34299 ft 485 kts 349°
2026-05-07 17:20 -30.97495 148.79841 34295 ft 485 kts 349°
2026-05-07 17:21 -30.90775 148.79362 34293 ft 484 kts 349°
2026-05-07 17:21 -30.84043 148.78882 34299 ft 484 kts 349°
2026-05-07 17:22 -30.77329 148.78407 34298 ft 483 kts 349°
2026-05-07 17:22 -30.70637 148.77934 34299 ft 482 kts 349°
2026-05-07 17:23 -30.63943 148.77461 34297 ft 482 kts 349°
2026-05-07 17:23 -30.57256 148.76993 34306 ft 481 kts 349°
2026-05-07 17:24 -30.50577 148.76527 34304 ft 481 kts 349°
2026-05-07 17:24 -30.43901 148.76059 34298 ft 480 kts 349°
2026-05-07 17:25 -30.37238 148.75593 34299 ft 480 kts 349°
2026-05-07 17:25 -30.30606 148.75130 34305 ft 479 kts 349°
2026-05-07 17:26 -30.23921 148.74665 34301 ft 478 kts 349°
2026-05-07 17:26 -30.17280 148.74203 34303 ft 478 kts 349°
2026-05-07 17:27 -30.10640 148.73741 34301 ft 477 kts 349°
2026-05-07 17:27 -30.04064 148.73285 34301 ft 476 kts 349°
2026-05-07 17:28 -29.97451 148.72827 34302 ft 476 kts 348°
2026-05-07 17:28 -29.90860 148.72370 34299 ft 475 kts 348°
2026-05-07 17:29 -29.84265 148.71913 34303 ft 474 kts 348°
2026-05-07 17:29 -29.77685 148.71458 34307 ft 474 kts 348°
2026-05-07 17:30 -29.71106 148.71005 34304 ft 473 kts 348°
2026-05-07 17:30 -29.64534 148.70552 34304 ft 473 kts 348°
2026-05-07 17:31 -29.57970 148.70100 34300 ft 472 kts 348°
2026-05-07 17:31 -29.51406 148.69649 34302 ft 472 kts 348°
2026-05-07 17:32 -29.44853 148.69200 34300 ft 472 kts 348°
2026-05-07 17:32 -29.38305 148.68752 34300 ft 471 kts 348°
2026-05-07 17:33 -29.31756 148.68304 34299 ft 471 kts 348°
2026-05-07 17:33 -29.25213 148.67857 34300 ft 471 kts 348°
2026-05-07 17:34 -29.18670 148.67409 34306 ft 470 kts 347°
2026-05-07 17:34 -29.12144 148.66963 34306 ft 470 kts 347°
2026-05-07 17:35 -29.05609 148.66517 34316 ft 470 kts 347°
2026-05-07 17:35 -28.99084 148.66077 34301 ft 469 kts 347°
2026-05-07 17:36 -28.92568 148.65634 34297 ft 469 kts 347°
2026-05-07 17:36 -28.86054 148.65190 34295 ft 469 kts 347°
2026-05-07 17:37 -28.79542 148.64748 34303 ft 468 kts 347°
2026-05-07 17:37 -28.73040 148.64308 34301 ft 468 kts 347°
2026-05-07 17:38 -28.66540 148.63870 34298 ft 468 kts 347°
2026-05-07 17:38 -28.60052 148.63432 34296 ft 467 kts 346°
2026-05-07 17:39 -28.53564 148.62994 34301 ft 467 kts 346°
2026-05-07 17:39 -28.47081 148.62558 34298 ft 466 kts 346°
2026-05-07 17:40 -28.40608 148.62122 34302 ft 466 kts 346°
2026-05-07 17:40 -28.34130 148.61687 34301 ft 466 kts 346°
2026-05-07 17:41 -28.27677 148.61254 34302 ft 465 kts 346°
2026-05-07 17:41 -28.21254 148.60824 34300 ft 465 kts 346°
2026-05-07 17:42 -28.14755 148.60389 34307 ft 464 kts 346°
2026-05-07 17:42 -28.08355 148.59962 34296 ft 464 kts 346°
2026-05-07 17:43 -28.01881 148.59527 34293 ft 463 kts 346°
2026-05-07 17:43 -27.95495 148.59099 34297 ft 463 kts 346°
2026-05-07 17:44 -27.89069 148.58674 34297 ft 462 kts 346°
2026-05-07 17:44 -27.82643 148.58247 34294 ft 462 kts 346°
2026-05-07 17:45 -27.76242 148.57822 34292 ft 461 kts 346°
2026-05-07 17:45 -27.69838 148.57397 34293 ft 461 kts 346°
2026-05-07 17:46 -27.63435 148.56973 34296 ft 460 kts 346°
2026-05-07 17:46 -27.57044 148.56549 34289 ft 460 kts 346°
2026-05-07 17:47 -27.50661 148.56127 34294 ft 460 kts 346°
2026-05-07 17:47 -27.44271 148.55705 34293 ft 459 kts 346°
2026-05-07 17:48 -27.37896 148.55285 34293 ft 459 kts 346°
2026-05-07 17:48 -27.31512 148.54864 34290 ft 459 kts 346°
2026-05-07 17:49 -27.25143 148.54444 34290 ft 459 kts 346°
2026-05-07 17:49 -27.18771 148.54024 34292 ft 459 kts 346°
2026-05-07 17:50 -27.12387 148.53605 34284 ft 459 kts 346°
2026-05-07 17:50 -27.06009 148.53187 34288 ft 459 kts 346°
2026-05-07 17:51 -26.99631 148.52769 34292 ft 459 kts 346°
2026-05-07 17:51 -26.93256 148.52353 34290 ft 459 kts 346°
2026-05-07 17:52 -26.86885 148.51937 34290 ft 458 kts 346°
2026-05-07 17:52 -26.80518 148.51521 34289 ft 458 kts 346°
2026-05-07 17:53 -26.74158 148.51106 34280 ft 458 kts 346°
2026-05-07 17:53 -26.67796 148.50691 34293 ft 458 kts 346°
2026-05-07 17:54 -26.61433 148.50277 34283 ft 457 kts 346°
2026-05-07 17:54 -26.55089 148.49865 34282 ft 457 kts 346°
2026-05-07 17:55 -26.48771 148.49454 34284 ft 457 kts 346°
2026-05-07 17:55 -26.42395 148.49040 34284 ft 457 kts 346°
2026-05-07 17:56 -26.36037 148.48628 34284 ft 457 kts 346°
2026-05-07 17:56 -26.29693 148.48218 34285 ft 457 kts 346°
2026-05-07 17:57 -26.24426 148.47877 34281 ft 457 kts 346°
2026-05-07 17:57 -26.17047 148.47401 34282 ft 457 kts 346°
2026-05-07 17:58 -26.10705 148.46992 34283 ft 457 kts 346°
2026-05-07 17:58 -26.04357 148.46644 34277 ft 462 kts 349°
2026-05-07 17:59 -26.01105 148.46901 34277 ft 474 kts 357°
2026-05-07 17:59 -25.97842 148.47481 34279 ft 477 kts 359°
2026-05-07 17:59 -25.91289 148.48839 34280 ft 479 kts 359°
2026-05-07 18:00 -25.84738 148.50246 34273 ft 479 kts 359°
2026-05-07 18:00 -25.78190 148.51629 34273 ft 479 kts 359°
2026-05-07 18:01 -25.71633 148.52996 34272 ft 479 kts 359°
2026-05-07 18:01 -25.65077 148.54356 34265 ft 479 kts 359°
2026-05-07 18:02 -25.55246 148.56394 34259 ft 479 kts 359°
2026-05-07 18:03 -25.48696 148.57751 34262 ft 479 kts 359°
2026-05-07 18:03 -25.43246 148.58879 34257 ft 479 kts 359°
2026-05-07 18:04 -25.35639 148.60451 34254 ft 479 kts 359°
2026-05-07 18:04 -25.30150 148.61584 34248 ft 479 kts 359°
2026-05-07 18:05 -25.22531 148.63156 34242 ft 479 kts 359°
2026-05-07 18:05 -25.17038 148.64288 34235 ft 479 kts 359°
2026-05-07 18:06 -25.10492 148.65635 34234 ft 479 kts 359°
2026-05-07 18:06 -25.03942 148.66982 34230 ft 479 kts 359°
2026-05-07 18:07 -24.97385 148.68329 34223 ft 479 kts 359°
2026-05-07 18:07 -24.90823 148.69674 34216 ft 480 kts 359°
2026-05-07 18:08 -24.84267 148.71018 34212 ft 480 kts 359°
2026-05-07 18:08 -24.77680 148.72366 34208 ft 480 kts 359°
2026-05-07 18:09 -24.71110 148.73711 34204 ft 480 kts 359°
2026-05-07 18:09 -24.64570 148.75047 34204 ft 481 kts 359°
2026-05-07 18:10 -24.57958 148.76396 34198 ft 481 kts 359°
2026-05-07 18:10 -24.51417 148.77729 34197 ft 481 kts 359°
2026-05-07 18:11 -24.44823 148.79072 34195 ft 481 kts 359°
2026-05-07 18:11 -24.38248 148.80409 34192 ft 481 kts 359°
2026-05-07 18:12 -24.31655 148.81749 34195 ft 481 kts 359°
2026-05-07 18:13 -24.18565 148.84405 34181 ft 481 kts 359°
2026-05-07 18:13 -24.11982 148.85739 34187 ft 481 kts 359°
2026-05-07 18:14 -24.05407 148.87069 34173 ft 481 kts 359°
2026-05-07 18:14 -23.98823 148.88400 34169 ft 480 kts 359°
2026-05-07 18:15 -23.92260 148.89725 34171 ft 480 kts 359°
2026-05-07 18:15 -23.85681 148.91052 34164 ft 480 kts 359°
2026-05-07 18:16 -23.79127 148.92372 34158 ft 479 kts 359°
2026-05-07 18:16 -23.72568 148.93693 34157 ft 479 kts 359°
2026-05-07 18:17 -23.66014 148.95012 34152 ft 478 kts 359°
2026-05-07 18:17 -23.59480 148.96325 34146 ft 478 kts 359°
2026-05-07 18:18 -23.52935 148.97638 34148 ft 477 kts 359°
2026-05-07 18:18 -23.46416 148.98944 34140 ft 477 kts 359°
2026-05-07 18:19 -23.39885 149.00253 34147 ft 476 kts 359°
2026-05-07 18:19 -23.33366 149.01557 34144 ft 476 kts 359°
2026-05-07 18:20 -23.26853 149.02859 34152 ft 476 kts 359°
2026-05-07 18:20 -23.20355 149.04156 34147 ft 475 kts 359°
2026-05-07 18:21 -23.13880 149.05448 34140 ft 475 kts 359°
2026-05-07 18:21 -23.07345 149.06750 34135 ft 475 kts 359°
2026-05-07 18:22 -23.00883 149.08037 34137 ft 475 kts 359°
2026-05-07 18:22 -22.94354 149.09335 34135 ft 474 kts 359°
2026-05-07 18:23 -22.87908 149.10616 34135 ft 474 kts 360°
2026-05-07 18:23 -22.81422 149.11708 34134 ft 463 kts 353°
2026-05-07 18:24 -22.75066 149.11635 34130 ft 455 kts 348°
2026-05-07 18:24 -22.68745 149.11327 34131 ft 454 kts 347°
2026-05-07 18:25 -22.62427 149.10998 34131 ft 455 kts 348°
2026-05-07 18:25 -22.56089 149.10687 34126 ft 455 kts 348°
2026-05-07 18:26 -22.49759 149.10387 34124 ft 455 kts 348°
2026-05-07 18:26 -22.43439 149.10090 34125 ft 455 kts 348°
2026-05-07 18:27 -22.37102 149.09791 34123 ft 456 kts 348°
2026-05-07 18:27 -22.30768 149.09492 34122 ft 456 kts 348°
2026-05-07 18:28 -22.24420 149.09193 34122 ft 456 kts 348°
2026-05-07 18:28 -22.18074 149.08894 34121 ft 456 kts 348°
2026-05-07 18:29 -22.11738 149.08598 34117 ft 456 kts 348°
2026-05-07 18:29 -22.05382 149.08297 34118 ft 457 kts 348°
2026-05-07 18:30 -21.99035 149.07998 34113 ft 458 kts 348°
2026-05-07 18:30 -21.92674 149.07701 34109 ft 458 kts 349°
2026-05-07 18:31 -21.86297 149.07402 34106 ft 458 kts 349°
2026-05-07 18:31 -21.79919 149.07104 34106 ft 459 kts 349°
2026-05-07 18:32 -21.73550 149.06805 34105 ft 459 kts 349°
2026-05-07 18:32 -21.67171 149.06460 34104 ft 458 kts 347°
2026-05-07 18:33 -21.60823 149.05911 34098 ft 457 kts 347°
2026-05-07 18:33 -21.54526 149.05343 34097 ft 457 kts 347°
2026-05-07 18:34 -21.48646 149.04841 34100 ft 458 kts 347°
2026-05-07 18:34 -21.42293 149.04316 34096 ft 459 kts 347°
2026-05-07 18:35 -21.35916 149.03794 34090 ft 460 kts 347°
2026-05-07 18:35 -21.29541 149.03274 34086 ft 460 kts 347°
2026-05-07 18:36 -21.23157 149.02752 34075 ft 460 kts 347°
2026-05-07 18:36 -21.16761 149.02229 34080 ft 461 kts 348°
2026-05-07 18:37 -21.10372 149.01706 34068 ft 461 kts 348°
2026-05-07 18:37 -21.03968 149.01185 34073 ft 462 kts 348°
2026-05-07 18:38 -20.97552 149.00661 34071 ft 462 kts 348°
2026-05-07 18:38 -20.91139 149.00138 34060 ft 462 kts 348°
2026-05-07 18:39 -20.84724 148.99615 34062 ft 463 kts 348°
2026-05-07 18:39 -20.78298 148.99091 34058 ft 463 kts 348°
2026-05-07 18:40 -20.71869 148.98568 34052 ft 463 kts 348°
2026-05-07 18:40 -20.65440 148.98046 34051 ft 463 kts 348°
2026-05-07 18:41 -20.59006 148.97524 34047 ft 464 kts 348°
2026-05-07 18:41 -20.52566 148.97001 34049 ft 464 kts 348°
2026-05-07 18:42 -20.46131 148.96480 34044 ft 464 kts 348°
2026-05-07 18:42 -20.39689 148.95958 34044 ft 464 kts 348°
2026-05-07 18:43 -20.33244 148.95428 34044 ft 463 kts 347°
2026-05-07 18:43 -20.26923 148.94434 34048 ft 459 kts 342°
2026-05-07 18:44 -20.20630 148.93216 34043 ft 459 kts 343°
2026-05-07 18:44 -20.14322 148.92073 34041 ft 460 kts 343°
2026-05-07 18:45 -20.08042 148.91000 34036 ft 461 kts 344°
2026-05-07 18:45 -20.01707 148.89939 34039 ft 461 kts 344°
2026-05-07 18:46 -19.95356 148.88873 34026 ft 461 kts 344°
2026-05-07 18:46 -19.89017 148.87807 34035 ft 462 kts 344°
2026-05-07 18:47 -19.82672 148.86739 34029 ft 462 kts 344°
2026-05-07 18:47 -19.76323 148.85671 34025 ft 462 kts 344°
2026-05-07 18:48 -19.69953 148.84601 34025 ft 463 kts 344°
2026-05-07 18:48 -19.63594 148.83534 34027 ft 463 kts 344°
2026-05-07 18:49 -19.57229 148.82467 34022 ft 463 kts 344°
2026-05-07 18:49 -19.50862 148.81400 34021 ft 464 kts 344°
2026-05-07 18:50 -19.44484 148.80332 34018 ft 464 kts 344°
2026-05-07 18:50 -19.38101 148.79264 34021 ft 464 kts 344°
2026-05-07 18:51 -19.31721 148.78197 34020 ft 464 kts 344°
2026-05-07 18:51 -19.25336 148.77131 34014 ft 465 kts 344°
2026-05-07 18:52 -19.18954 148.76065 34015 ft 465 kts 344°
2026-05-07 18:52 -19.12567 148.75000 34015 ft 465 kts 344°
2026-05-07 18:53 -19.06213 148.73942 34012 ft 465 kts 344°
2026-05-07 18:53 -18.99814 148.72876 34012 ft 465 kts 344°
2026-05-07 18:54 -18.93416 148.71812 34009 ft 465 kts 344°
2026-05-07 18:54 -18.87021 148.70748 34001 ft 466 kts 344°
2026-05-07 18:55 -18.80611 148.69684 34003 ft 466 kts 344°
2026-05-07 18:55 -18.74220 148.68623 34002 ft 466 kts 344°
2026-05-07 18:56 -18.67802 148.67558 34002 ft 466 kts 345°
2026-05-07 18:56 -18.61401 148.66497 33999 ft 466 kts 345°
2026-05-07 18:57 -18.54991 148.65435 33999 ft 466 kts 345°
2026-05-07 18:57 -18.48574 148.64373 33993 ft 466 kts 345°
2026-05-07 18:58 -18.42167 148.63314 33998 ft 467 kts 345°
2026-05-07 18:58 -18.35750 148.62253 33995 ft 467 kts 345°
2026-05-07 18:59 -18.29334 148.61194 33992 ft 467 kts 345°
2026-05-07 18:59 -18.22910 148.60134 33993 ft 467 kts 345°
2026-05-07 19:00 -18.16490 148.59076 33991 ft 467 kts 345°
2026-05-07 19:00 -18.10067 148.58018 33984 ft 467 kts 345°
2026-05-07 19:01 -18.03651 148.56962 33987 ft 467 kts 345°
2026-05-07 19:01 -17.97218 148.55904 33988 ft 467 kts 345°
2026-05-07 19:02 -17.90796 148.54848 33983 ft 468 kts 345°
2026-05-07 19:02 -17.84365 148.53791 33986 ft 468 kts 345°
2026-05-07 19:03 -17.77971 148.52742 33979 ft 468 kts 345°
2026-05-07 19:03 -17.71544 148.51688 33986 ft 468 kts 345°
2026-05-07 19:04 -17.65118 148.50634 33987 ft 468 kts 345°
2026-05-07 19:04 -17.58680 148.49580 33981 ft 468 kts 345°
2026-05-07 19:05 -17.52239 148.48525 33976 ft 469 kts 345°
2026-05-07 19:05 -17.45798 148.47472 33979 ft 469 kts 345°
2026-05-07 19:06 -17.39341 148.46417 33980 ft 469 kts 345°
2026-05-07 19:06 -17.29662 148.44836 33979 ft 470 kts 345°
2026-05-07 19:07 -17.23192 148.43781 33975 ft 470 kts 346°
2026-05-07 19:07 -17.16727 148.42726 33973 ft 471 kts 346°
2026-05-07 19:08 -17.10243 148.41670 33971 ft 471 kts 346°
2026-05-07 19:08 -17.03775 148.40616 33968 ft 471 kts 346°
2026-05-07 19:09 -16.97300 148.39563 33966 ft 471 kts 346°
2026-05-07 19:09 -16.90817 148.38508 33978 ft 472 kts 346°
2026-05-07 19:10 -16.84325 148.37454 33959 ft 472 kts 346°
2026-05-07 19:10 -16.77839 148.36402 33956 ft 472 kts 346°
2026-05-07 19:11 -16.71347 148.35349 33963 ft 472 kts 346°
2026-05-07 19:11 -16.64851 148.34296 33960 ft 472 kts 346°
2026-05-07 19:12 -16.58353 148.33243 33966 ft 472 kts 346°
2026-05-07 19:12 -16.51895 148.32197 33961 ft 472 kts 346°
2026-05-07 19:13 -16.45367 148.31141 33955 ft 472 kts 346°
2026-05-07 19:13 -16.38874 148.30091 33951 ft 473 kts 346°
2026-05-07 19:14 -16.32363 148.29039 33962 ft 473 kts 346°
2026-05-07 19:14 -16.25910 148.27998 33957 ft 473 kts 346°
2026-05-07 19:15 -16.19409 148.26949 33960 ft 473 kts 346°
2026-05-07 19:15 -16.12899 148.25899 33954 ft 473 kts 346°
2026-05-07 19:16 -16.07504 148.25030 33951 ft 473 kts 346°
2026-05-07 19:16 -15.99904 148.23806 33954 ft 473 kts 346°
2026-05-07 19:17 -15.94486 148.22934 33944 ft 474 kts 346°
2026-05-07 19:17 -15.87965 148.21885 33948 ft 474 kts 346°
2026-05-07 19:18 -15.81449 148.20838 33949 ft 474 kts 346°
2026-05-07 19:18 -15.74929 148.19790 33950 ft 475 kts 347°
2026-05-07 19:19 -15.68392 148.18741 33945 ft 475 kts 347°
2026-05-07 19:19 -15.61854 148.17697 33946 ft 476 kts 347°
2026-05-07 19:20 -15.55308 148.16646 33943 ft 476 kts 347°
2026-05-07 19:20 -15.48767 148.15598 33940 ft 477 kts 347°
2026-05-07 19:21 -15.42206 148.14548 33940 ft 477 kts 347°
2026-05-07 19:21 -15.35594 148.13491 33938 ft 477 kts 347°
2026-05-07 19:22 -15.29080 148.12450 33943 ft 478 kts 347°
2026-05-07 19:22 -15.22499 148.11400 33940 ft 478 kts 347°
2026-05-07 19:23 -15.15939 148.10354 33935 ft 478 kts 347°
2026-05-07 19:23 -15.09365 148.09305 33934 ft 478 kts 347°
2026-05-07 19:24 -15.02787 148.08256 33933 ft 479 kts 347°
2026-05-07 19:24 -14.96195 148.07206 33931 ft 479 kts 347°
2026-05-07 19:25 -14.89600 148.06157 33935 ft 480 kts 347°
2026-05-07 19:25 -14.83004 148.05108 33933 ft 480 kts 347°
2026-05-07 19:26 -14.76395 148.04057 33932 ft 481 kts 347°
2026-05-07 19:26 -14.69783 148.03007 33929 ft 481 kts 347°
2026-05-07 19:27 -14.63159 148.01956 33926 ft 482 kts 347°
2026-05-07 19:27 -14.56531 148.00904 33926 ft 483 kts 347°
2026-05-07 19:28 -14.49885 147.99850 33928 ft 483 kts 348°
2026-05-07 19:28 -14.43233 147.98796 33925 ft 484 kts 348°
2026-05-07 19:29 -14.36569 147.97741 33923 ft 484 kts 348°
2026-05-07 19:29 -14.29904 147.96686 33922 ft 485 kts 348°
2026-05-07 19:30 -14.23233 147.95631 33927 ft 485 kts 348°
2026-05-07 19:30 -14.16605 147.94583 33918 ft 485 kts 348°
2026-05-07 19:31 -14.09934 147.93529 33928 ft 486 kts 348°
2026-05-07 19:31 -14.03247 147.92473 33916 ft 486 kts 348°
2026-05-07 19:32 -13.96563 147.91418 33913 ft 486 kts 348°
2026-05-07 19:32 -13.89875 147.90364 33924 ft 486 kts 348°
2026-05-07 19:33 -13.83183 147.89309 33920 ft 486 kts 348°
2026-05-07 19:33 -13.76490 147.88254 33907 ft 487 kts 348°
2026-05-07 19:34 -13.69799 147.87201 33916 ft 487 kts 348°
2026-05-07 19:34 -13.63093 147.86146 33912 ft 487 kts 348°
2026-05-07 19:35 -13.56392 147.85092 33915 ft 487 kts 348°
2026-05-07 19:35 -13.49693 147.84039 33908 ft 487 kts 348°
2026-05-07 19:36 -13.42991 147.82987 33907 ft 488 kts 348°
2026-05-07 19:36 -13.36282 147.81934 33910 ft 488 kts 349°
2026-05-07 19:37 -13.29569 147.80880 33906 ft 488 kts 349°
2026-05-07 19:37 -13.22865 147.79829 33907 ft 488 kts 349°
2026-05-07 19:38 -13.16141 147.78775 33908 ft 488 kts 349°
2026-05-07 19:38 -13.09475 147.77731 33908 ft 489 kts 349°
2026-05-07 19:39 -13.02749 147.76678 33903 ft 489 kts 349°
2026-05-07 19:39 -12.96023 147.75626 33903 ft 489 kts 349°
2026-05-07 19:40 -12.89297 147.74574 33899 ft 489 kts 349°
2026-05-07 19:40 -12.82560 147.73521 33901 ft 489 kts 349°
2026-05-07 19:41 -12.75826 147.72469 33901 ft 490 kts 349°
2026-05-07 19:41 -12.69081 147.71416 33899 ft 490 kts 349°
2026-05-07 19:42 -12.62356 147.70367 33900 ft 490 kts 349°
2026-05-07 19:42 -12.55603 147.69314 33895 ft 490 kts 349°
2026-05-07 19:43 -12.48864 147.68263 33895 ft 490 kts 349°
2026-05-07 19:43 -12.42116 147.67212 33900 ft 490 kts 349°
2026-05-07 19:44 -12.35366 147.66161 33901 ft 490 kts 349°
2026-05-07 19:44 -12.28624 147.65112 33904 ft 491 kts 349°
2026-05-07 19:45 -12.21871 147.64061 33894 ft 491 kts 349°
2026-05-07 19:45 -12.15117 147.63011 33894 ft 491 kts 349°
2026-05-07 19:46 -12.08369 147.61963 33896 ft 491 kts 349°
2026-05-07 19:46 -12.01637 147.60918 33893 ft 491 kts 349°
2026-05-07 19:47 -11.94870 147.59871 33895 ft 491 kts 349°
2026-05-07 19:47 -11.88115 147.58822 33892 ft 491 kts 349°
2026-05-07 19:48 -11.81368 147.57775 33895 ft 491 kts 349°
2026-05-07 19:48 -11.74644 147.56733 33897 ft 491 kts 349°
2026-05-07 19:49 -11.67888 147.55687 33892 ft 491 kts 349°
2026-05-07 19:49 -11.61133 147.54642 33896 ft 491 kts 349°
2026-05-07 19:50 -11.54375 147.53597 33891 ft 491 kts 349°
2026-05-07 19:50 -11.47611 147.52551 33891 ft 492 kts 349°
2026-05-07 19:51 -11.40844 147.51506 33895 ft 492 kts 349°
2026-05-07 19:51 -11.34077 147.50461 33894 ft 492 kts 349°
2026-05-07 19:52 -11.27315 147.49417 33892 ft 492 kts 349°
2026-05-07 19:52 -11.20547 147.48372 33893 ft 492 kts 349°
2026-05-07 19:53 -11.13784 147.47329 33893 ft 492 kts 349°
2026-05-07 19:53 -11.07010 147.46285 33889 ft 492 kts 349°
2026-05-07 19:54 -11.00289 147.45250 33893 ft 492 kts 349°
2026-05-07 19:54 -10.93525 147.44209 33887 ft 491 kts 349°
2026-05-07 19:55 -10.86769 147.43168 33893 ft 492 kts 349°
2026-05-07 19:55 -10.80002 147.42127 33892 ft 492 kts 349°
2026-05-07 19:56 -10.73224 147.41085 33894 ft 492 kts 349°
2026-05-07 19:56 -10.66452 147.40044 33892 ft 493 kts 349°
2026-05-07 19:57 -10.59685 147.39004 33889 ft 493 kts 349°
2026-05-07 19:57 -10.52899 147.37962 33890 ft 493 kts 349°
2026-05-07 19:58 -10.46110 147.36919 33889 ft 493 kts 349°
2026-05-07 19:58 -10.39322 147.35878 33888 ft 494 kts 350°
2026-05-07 19:59 -10.32521 147.34834 33893 ft 494 kts 350°
2026-05-07 19:59 -10.25726 147.33793 33892 ft 494 kts 350°
2026-05-07 20:00 -10.18925 147.32751 33893 ft 494 kts 350°
2026-05-07 20:00 -10.12129 147.31710 33893 ft 494 kts 350°
2026-05-07 20:01 -10.05333 147.30669 33891 ft 494 kts 350°
2026-05-07 20:01 -9.98528 147.29627 33891 ft 494 kts 350°
2026-05-07 20:02 -9.91739 147.28589 33895 ft 494 kts 350°
2026-05-07 20:02 -9.86088 147.27725 33893 ft 494 kts 351°
2026-05-07 20:03 -9.79292 147.26686 33897 ft 494 kts 351°
2026-05-07 20:03 -9.72540 147.25655 33898 ft 494 kts 351°
2026-05-07 20:04 -9.65718 147.24613 33898 ft 493 kts 351°
2026-05-07 20:04 -9.58922 147.23575 33895 ft 493 kts 351°
2026-05-07 20:05 -9.52132 147.22539 33900 ft 493 kts 351°
2026-05-07 20:05 -9.45334 147.21503 33902 ft 493 kts 351°
2026-05-07 20:06 -9.38564 147.20386 33905 ft 493 kts 349°
2026-05-07 20:06 -9.31810 147.19149 33902 ft 493 kts 349°
2026-05-07 20:07 -9.25093 147.17931 33905 ft 493 kts 349°
2026-05-07 20:07 -9.18291 147.16722 33908 ft 493 kts 349°
2026-05-07 20:08 -9.11513 147.15528 33914 ft 494 kts 349°
2026-05-07 20:08 -9.04748 147.14336 33922 ft 494 kts 349°
2026-05-07 20:09 -8.97994 147.13146 33929 ft 494 kts 349°
2026-05-07 20:10 -8.87836 147.11356 33938 ft 493 kts 349°
2026-05-07 20:10 -8.81119 147.10173 33948 ft 493 kts 349°
2026-05-07 20:11 -8.74363 147.08983 33958 ft 493 kts 349°
2026-05-07 20:11 -8.67594 147.07791 33966 ft 494 kts 349°
2026-05-07 20:12 -8.60818 147.06600 33979 ft 494 kts 349°
2026-05-07 20:12 -8.54054 147.05411 33988 ft 494 kts 349°
2026-05-07 20:13 -8.47278 147.04220 33987 ft 494 kts 349°
2026-05-07 20:13 -8.40506 147.03029 34002 ft 494 kts 349°
2026-05-07 20:14 -8.33721 147.01838 34009 ft 495 kts 349°
2026-05-07 20:14 -8.26951 147.00649 34012 ft 495 kts 349°
2026-05-07 20:15 -8.20162 146.99457 34015 ft 495 kts 349°
2026-05-07 20:15 -8.13384 146.98267 34020 ft 495 kts 349°
2026-05-07 20:16 -8.06594 146.97076 34022 ft 495 kts 349°
2026-05-07 20:16 -7.99800 146.95884 34022 ft 496 kts 350°
2026-05-07 20:17 -7.93013 146.94693 34021 ft 496 kts 350°
2026-05-07 20:17 -7.86212 146.93501 34015 ft 496 kts 350°
2026-05-07 20:18 -7.79405 146.92309 34018 ft 496 kts 350°
2026-05-07 20:18 -7.72610 146.91120 34011 ft 496 kts 350°
2026-05-07 20:19 -7.65807 146.89928 34007 ft 496 kts 350°
2026-05-07 20:19 -7.59016 146.88739 34001 ft 496 kts 350°
2026-05-07 20:20 -7.52217 146.87549 34001 ft 496 kts 350°
2026-05-07 20:20 -7.45411 146.86358 34003 ft 496 kts 350°
2026-05-07 20:21 -7.38618 146.85171 33992 ft 496 kts 350°
2026-05-07 20:21 -7.31817 146.83982 33991 ft 496 kts 350°
2026-05-07 20:22 -7.25011 146.82793 33983 ft 496 kts 350°
2026-05-07 20:22 -7.18208 146.81604 33976 ft 496 kts 350°
2026-05-07 20:23 -7.11407 146.80416 33969 ft 496 kts 350°
2026-05-07 20:23 -7.04603 146.79229 33963 ft 496 kts 350°
2026-05-07 20:24 -6.97845 146.78049 33956 ft 496 kts 350°
2026-05-07 20:24 -6.91048 146.76862 33951 ft 496 kts 350°
2026-05-07 20:25 -6.84195 146.75667 33942 ft 496 kts 350°
2026-05-07 20:25 -6.77396 146.74482 33937 ft 496 kts 350°
2026-05-07 20:26 -6.70578 146.73293 33942 ft 497 kts 350°
2026-05-07 20:26 -6.63774 146.72108 33944 ft 497 kts 350°
2026-05-07 20:27 -6.56964 146.70921 33951 ft 497 kts 350°
2026-05-07 20:27 -6.50145 146.70057 33964 ft 496 kts 356°
2026-05-07 20:28 -6.43251 146.69596 33971 ft 497 kts 356°
2026-05-07 20:28 -6.36308 146.69095 33980 ft 497 kts 355°
2026-05-07 20:29 -6.29483 146.68525 33986 ft 497 kts 355°
2026-05-07 20:29 -6.22591 146.67922 33998 ft 496 kts 355°
2026-05-07 20:30 -6.15712 146.67318 33999 ft 496 kts 355°
2026-05-07 20:30 -6.08832 146.66718 34000 ft 496 kts 355°
2026-05-07 20:31 -6.01960 146.66120 33987 ft 496 kts 355°
2026-05-07 20:31 -5.95091 146.65524 33976 ft 495 kts 355°
2026-05-07 20:32 -5.88220 146.64926 33958 ft 495 kts 355°
2026-05-07 20:32 -5.81358 146.64330 33943 ft 495 kts 355°
2026-05-07 20:33 -5.74495 146.63734 33927 ft 495 kts 355°
2026-05-07 20:33 -5.67647 146.63139 33913 ft 494 kts 355°
2026-05-07 20:34 -5.60791 146.62544 33898 ft 494 kts 355°
2026-05-07 20:34 -5.53944 146.61949 33888 ft 494 kts 355°
2026-05-07 20:35 -5.47142 146.61359 33875 ft 494 kts 355°
2026-05-07 20:35 -5.40287 146.60764 33868 ft 495 kts 355°
2026-05-07 20:36 -5.33425 146.60169 33864 ft 494 kts 355°
2026-05-07 20:36 -5.26524 146.59570 33864 ft 495 kts 355°
2026-05-07 20:37 -5.19710 146.58979 33865 ft 495 kts 355°
2026-05-07 20:37 -5.12849 146.58384 33868 ft 495 kts 355°
2026-05-07 20:38 -5.05978 146.57789 33862 ft 495 kts 356°
2026-05-07 20:38 -4.99108 146.57193 33866 ft 496 kts 356°
2026-05-07 20:39 -4.92234 146.56598 33865 ft 496 kts 356°
2026-05-07 20:39 -4.85367 146.56003 33864 ft 496 kts 356°
2026-05-07 20:40 -4.78486 146.55407 33864 ft 496 kts 356°
2026-05-07 20:40 -4.71609 146.54812 33868 ft 496 kts 356°
2026-05-07 20:41 -4.64742 146.54218 33863 ft 496 kts 356°
2026-05-07 20:41 -4.57854 146.53621 33860 ft 496 kts 356°
2026-05-07 20:42 -4.51016 146.53030 33861 ft 496 kts 356°
2026-05-07 20:42 -4.44148 146.52436 33858 ft 496 kts 356°
2026-05-07 20:43 -4.37265 146.51840 33858 ft 496 kts 356°
2026-05-07 20:43 -4.30383 146.51245 33859 ft 496 kts 356°
2026-05-07 20:44 -4.23508 146.50651 33858 ft 496 kts 356°
2026-05-07 20:44 -4.16643 146.50057 33859 ft 496 kts 356°
2026-05-07 20:45 -4.09776 146.49464 33857 ft 495 kts 356°
2026-05-07 20:45 -4.02912 146.48871 33858 ft 495 kts 356°
2026-05-07 20:46 -3.96038 146.48277 33861 ft 495 kts 356°
2026-05-07 20:46 -3.89172 146.47683 33857 ft 495 kts 356°
2026-05-07 20:47 -3.82316 146.47091 33858 ft 495 kts 356°
2026-05-07 20:47 -3.75463 146.46499 33860 ft 494 kts 356°
2026-05-07 20:48 -3.68615 146.45908 33863 ft 494 kts 356°
2026-05-07 20:48 -3.61761 146.45316 33862 ft 494 kts 356°
2026-05-07 20:49 -3.54923 146.44726 33863 ft 494 kts 356°
2026-05-07 20:49 -3.49232 146.44234 33865 ft 493 kts 356°
2026-05-07 20:50 -3.41223 146.43543 33863 ft 493 kts 356°
2026-05-07 20:50 -3.34429 146.42957 33864 ft 493 kts 356°
2026-05-07 20:51 -3.28703 146.42463 33862 ft 493 kts 356°
2026-05-07 20:51 -3.21855 146.41872 33862 ft 493 kts 357°
2026-05-07 20:52 -3.15017 146.41282 33859 ft 493 kts 357°
2026-05-07 20:52 -3.08184 146.40693 33863 ft 494 kts 357°
2026-05-07 20:53 -3.01332 146.40102 33862 ft 494 kts 357°
2026-05-07 20:53 -2.94479 146.39511 33861 ft 494 kts 357°
2026-05-07 20:54 -2.87628 146.38921 33862 ft 494 kts 357°
2026-05-07 20:54 -2.80774 146.38330 33859 ft 495 kts 357°
2026-05-07 20:55 -2.73908 146.37738 33862 ft 495 kts 356°
2026-05-07 20:55 -2.67058 146.37148 33862 ft 495 kts 357°
2026-05-07 20:56 -2.60218 146.36558 33862 ft 496 kts 357°
2026-05-07 20:56 -2.53350 146.35967 33860 ft 496 kts 357°
2026-05-07 20:57 -2.46477 146.35374 33861 ft 496 kts 357°
2026-05-07 20:57 -2.39549 146.34778 33862 ft 496 kts 356°
2026-05-07 20:58 -2.32667 146.34185 33865 ft 496 kts 356°
2026-05-07 20:58 -2.25837 146.33597 33865 ft 497 kts 356°
2026-05-07 20:59 -2.18955 146.33004 33865 ft 497 kts 356°
2026-05-07 20:59 -2.12072 146.32412 33864 ft 497 kts 356°
2026-05-07 21:00 -2.05181 146.31818 33866 ft 497 kts 356°
2026-05-07 21:00 -1.98286 146.31225 33865 ft 497 kts 356°
2026-05-07 21:01 -1.91409 146.30633 33867 ft 497 kts 356°
2026-05-07 21:01 -1.84516 146.30040 33865 ft 497 kts 356°
2026-05-07 21:02 -1.77622 146.29446 33862 ft 497 kts 356°
2026-05-07 21:02 -1.70739 146.28854 33862 ft 497 kts 356°
2026-05-07 21:03 -1.63853 146.28261 33865 ft 497 kts 356°
2026-05-07 21:03 -1.56952 146.27667 33872 ft 497 kts 356°
2026-05-07 21:04 -1.50065 146.27075 33876 ft 498 kts 356°
2026-05-07 21:04 -1.43165 146.26481 33871 ft 498 kts 356°
2026-05-07 21:05 -1.36260 146.25887 33870 ft 498 kts 356°
2026-05-07 21:05 -1.29339 146.25292 33871 ft 498 kts 356°
2026-05-07 21:06 -1.22427 146.24697 33870 ft 499 kts 356°
2026-05-07 21:06 -1.15547 146.24105 33871 ft 499 kts 356°
2026-05-07 21:07 -1.08629 146.23510 33870 ft 500 kts 356°
2026-05-07 21:07 -1.01698 146.22914 33869 ft 500 kts 356°
2026-05-07 21:08 -0.94759 146.22317 33868 ft 501 kts 356°
2026-05-07 21:08 -0.87824 146.21721 33870 ft 501 kts 356°
2026-05-07 21:09 -0.80878 146.21123 33874 ft 501 kts 356°
2026-05-07 21:09 -0.73926 146.20525 33873 ft 502 kts 356°
2026-05-07 21:10 -0.66962 146.19927 33873 ft 502 kts 356°
2026-05-07 21:10 -0.59999 146.19328 33871 ft 502 kts 356°
2026-05-07 21:11 -0.53037 146.18729 33870 ft 502 kts 356°
2026-05-07 21:11 -0.42591 146.17831 33870 ft 503 kts 356°
2026-05-07 21:12 -0.35612 146.17231 33874 ft 503 kts 356°
2026-05-07 21:12 -0.28690 146.16635 33874 ft 503 kts 356°
2026-05-07 21:13 -0.21675 146.16032 33875 ft 503 kts 356°
2026-05-07 21:13 -0.14737 146.15436 33874 ft 503 kts 356°
2026-05-07 21:14 -0.07762 146.14836 33875 ft 503 kts 356°
2026-05-07 21:14 -0.00823 146.13944 33871 ft 505 kts 347°
2026-05-07 21:15 0.05707 146.11352 33875 ft 506 kts 335°
2026-05-07 21:15 0.12012 146.08193 33875 ft 507 kts 334°
2026-05-07 21:16 0.18285 146.04987 33876 ft 507 kts 334°
2026-05-07 21:16 0.24578 146.01797 33875 ft 507 kts 334°
2026-05-07 21:17 0.30884 145.98618 33874 ft 507 kts 334°
2026-05-07 21:17 0.37199 145.95440 33875 ft 508 kts 334°
2026-05-07 21:18 0.43508 145.92264 33876 ft 508 kts 334°
2026-05-07 21:18 0.49808 145.89092 33873 ft 508 kts 334°
2026-05-07 21:19 0.56124 145.85911 33875 ft 508 kts 334°
2026-05-07 21:19 0.62441 145.82730 33878 ft 508 kts 334°
2026-05-07 21:20 0.68757 145.79549 33876 ft 509 kts 334°
2026-05-07 21:20 0.75083 145.76362 33878 ft 509 kts 334°
2026-05-07 21:21 0.81406 145.73178 33878 ft 509 kts 334°
2026-05-07 21:21 0.87738 145.69988 33878 ft 510 kts 334°
2026-05-07 21:22 0.94035 145.66817 33877 ft 510 kts 334°
2026-05-07 21:22 1.00368 145.63626 33878 ft 510 kts 334°
2026-05-07 21:23 1.06736 145.60419 33876 ft 509 kts 334°
2026-05-07 21:23 1.13029 145.57248 33878 ft 509 kts 334°
2026-05-07 21:24 1.19386 145.54046 33876 ft 509 kts 334°
2026-05-07 21:24 1.25699 145.50866 33879 ft 508 kts 334°
2026-05-07 21:25 1.32014 145.47684 33879 ft 508 kts 334°
2026-05-07 21:25 1.38329 145.44502 33878 ft 508 kts 334°
2026-05-07 21:26 1.44631 145.41326 33878 ft 508 kts 334°
2026-05-07 21:26 1.50949 145.38142 33879 ft 509 kts 334°
2026-05-07 21:27 1.57275 145.34954 33881 ft 510 kts 334°
2026-05-07 21:27 1.63622 145.31756 33882 ft 511 kts 334°
2026-05-07 21:28 1.69978 145.28551 33880 ft 512 kts 334°
2026-05-07 21:28 1.76302 145.25364 33882 ft 512 kts 334°
2026-05-07 21:29 1.82706 145.22136 33880 ft 512 kts 334°
2026-05-07 21:29 1.89032 145.18947 33882 ft 512 kts 334°
2026-05-07 21:30 1.95386 145.15744 33881 ft 512 kts 333°
2026-05-07 21:30 2.01749 145.12535 33880 ft 513 kts 333°
2026-05-07 21:31 2.08120 145.09322 33882 ft 513 kts 333°
2026-05-07 21:31 2.14493 145.06107 33883 ft 514 kts 333°
2026-05-07 21:32 2.20873 145.02889 33880 ft 514 kts 334°
2026-05-07 21:32 2.27254 144.99670 33878 ft 514 kts 333°
2026-05-07 21:33 2.33630 144.96454 33884 ft 513 kts 334°
2026-05-07 21:33 2.40010 144.93235 33883 ft 513 kts 334°
2026-05-07 21:34 2.46386 144.90018 33879 ft 513 kts 334°
2026-05-07 21:34 2.52753 144.86804 33881 ft 513 kts 334°
2026-05-07 21:35 2.59127 144.83589 33879 ft 513 kts 334°
2026-05-07 21:35 2.65489 144.80377 33879 ft 512 kts 333°
2026-05-07 21:36 2.70783 144.77705 33879 ft 512 kts 333°
2026-05-07 21:36 2.77158 144.74487 33876 ft 513 kts 333°
2026-05-07 21:37 2.83527 144.71272 33878 ft 513 kts 333°
2026-05-07 21:38 2.96342 144.64798 33876 ft 514 kts 333°
2026-05-07 21:38 3.02726 144.61574 33874 ft 515 kts 333°
2026-05-07 21:39 3.09139 144.58335 33874 ft 516 kts 333°
2026-05-07 21:39 3.15511 144.55115 33877 ft 517 kts 333°
2026-05-07 21:40 3.21930 144.51871 33877 ft 516 kts 333°
2026-05-07 21:40 3.28332 144.48636 33876 ft 516 kts 333°
2026-05-07 21:41 3.34727 144.45403 33876 ft 515 kts 333°
2026-05-07 21:41 3.41129 144.42167 33874 ft 515 kts 333°
2026-05-07 21:42 3.47509 144.38941 33872 ft 514 kts 334°
2026-05-07 21:42 3.53902 144.35709 33872 ft 514 kts 334°
2026-05-07 21:43 3.60262 144.32492 33872 ft 513 kts 334°
2026-05-07 21:43 3.66645 144.29264 33873 ft 513 kts 333°
2026-05-07 21:44 3.72998 144.26049 33876 ft 512 kts 333°
2026-05-07 21:44 3.79352 144.22834 33876 ft 511 kts 333°
2026-05-07 21:45 3.85701 144.19621 33876 ft 511 kts 333°
2026-05-07 21:45 3.92046 144.16409 33874 ft 511 kts 333°
2026-05-07 21:46 3.98394 144.13196 33878 ft 511 kts 333°
2026-05-07 21:46 4.04741 144.09982 33877 ft 511 kts 333°
2026-05-07 21:47 4.11084 144.06770 33875 ft 511 kts 333°
2026-05-07 21:47 4.17431 144.03554 33872 ft 512 kts 333°
2026-05-07 21:48 4.23790 144.00333 33874 ft 512 kts 333°
2026-05-07 21:48 4.30153 143.97109 33872 ft 512 kts 333°
2026-05-07 21:49 4.36516 143.93884 33874 ft 513 kts 333°
2026-05-07 21:49 4.42881 143.90657 33871 ft 513 kts 333°
2026-05-07 21:50 4.49218 143.87444 33870 ft 514 kts 333°
2026-05-07 21:50 4.55602 143.84207 33871 ft 514 kts 333°
2026-05-07 21:51 4.61987 143.80968 33868 ft 515 kts 333°
2026-05-07 21:51 4.68378 143.77726 33864 ft 516 kts 333°
2026-05-07 21:52 4.74798 143.74469 33864 ft 517 kts 332°
2026-05-07 21:52 4.81207 143.71217 33862 ft 518 kts 332°
2026-05-07 21:53 4.87640 143.67949 33865 ft 518 kts 332°
2026-05-07 21:53 4.94070 143.64685 33866 ft 519 kts 332°
2026-05-07 21:54 5.00382 143.61200 33863 ft 518 kts 323°
2026-05-07 21:54 5.06061 143.56757 33864 ft 517 kts 320°
2026-05-07 21:55 5.11610 143.52179 33864 ft 517 kts 319°
2026-05-07 21:55 5.17162 143.47585 33863 ft 517 kts 319°
2026-05-07 21:56 5.22727 143.43001 33860 ft 517 kts 320°
2026-05-07 21:56 5.28279 143.38435 33859 ft 516 kts 320°
2026-05-07 21:57 5.33832 143.33870 33859 ft 515 kts 320°
2026-05-07 21:57 5.39376 143.29312 33860 ft 515 kts 320°
2026-05-07 21:58 5.44906 143.24762 33859 ft 514 kts 320°
2026-05-07 21:58 5.50434 143.20209 33854 ft 513 kts 320°
2026-05-07 21:59 5.55953 143.15664 33855 ft 513 kts 320°
2026-05-07 21:59 5.61458 143.11131 33855 ft 512 kts 320°
2026-05-07 22:00 5.66931 143.06624 33851 ft 511 kts 320°
2026-05-07 22:00 5.72427 143.02096 33852 ft 511 kts 320°
2026-05-07 22:01 5.77922 142.97566 33852 ft 511 kts 320°
2026-05-07 22:01 5.83407 142.93045 33848 ft 510 kts 320°
2026-05-07 22:02 5.88895 142.88522 33852 ft 511 kts 320°
2026-05-07 22:02 5.94393 142.83990 33846 ft 511 kts 320°
2026-05-07 22:03 5.99882 142.79462 33845 ft 511 kts 320°
2026-05-07 22:03 6.05378 142.74927 33842 ft 511 kts 320°
2026-05-07 22:04 6.10876 142.70389 33838 ft 511 kts 320°
2026-05-07 22:04 6.16375 142.65849 33840 ft 511 kts 320°
2026-05-07 22:05 6.21866 142.61317 33835 ft 512 kts 320°
2026-05-07 22:05 6.27367 142.56772 33834 ft 512 kts 320°
2026-05-07 22:06 6.32875 142.52220 33833 ft 512 kts 320°
2026-05-07 22:06 6.38373 142.47675 33830 ft 512 kts 320°
2026-05-07 22:07 6.43883 142.43118 33828 ft 513 kts 320°
2026-05-07 22:07 6.49393 142.38564 33827 ft 513 kts 320°
2026-05-07 22:08 6.54915 142.33997 33827 ft 513 kts 320°
2026-05-07 22:08 6.60376 142.29476 33824 ft 512 kts 320°
2026-05-07 22:09 6.65884 142.24916 33820 ft 512 kts 320°
2026-05-07 22:09 6.71376 142.20369 33814 ft 512 kts 320°
2026-05-07 22:10 6.76867 142.15819 33813 ft 510 kts 320°
2026-05-07 22:10 6.82347 142.11280 33813 ft 510 kts 320°
2026-05-07 22:11 6.87809 142.06754 33807 ft 509 kts 320°
2026-05-07 22:11 6.93281 142.02218 33803 ft 509 kts 320°
2026-05-07 22:12 6.98737 141.97693 33803 ft 508 kts 320°
2026-05-07 22:12 7.04177 141.93180 33803 ft 507 kts 320°
2026-05-07 22:13 7.09627 141.88657 33799 ft 508 kts 321°
2026-05-07 22:13 7.15085 141.84127 33794 ft 509 kts 321°
2026-05-07 22:14 7.20553 141.79587 33794 ft 510 kts 321°
2026-05-07 22:14 7.26012 141.75053 33789 ft 510 kts 321°
2026-05-07 22:15 7.31500 141.70491 33787 ft 510 kts 321°
2026-05-07 22:15 7.36934 141.65976 33779 ft 511 kts 321°
2026-05-07 22:16 7.42416 141.61421 33776 ft 511 kts 322°
2026-05-07 22:16 7.47897 141.56863 33769 ft 511 kts 322°
2026-05-07 22:17 7.53368 141.52304 33762 ft 511 kts 322°
2026-05-07 22:17 7.58848 141.47750 33758 ft 510 kts 322°
2026-05-07 22:18 7.67053 141.40925 33749 ft 508 kts 322°
2026-05-07 22:19 7.72476 141.36406 33742 ft 506 kts 322°
2026-05-07 22:19 7.77897 141.31885 33738 ft 505 kts 322°
2026-05-07 22:20 7.83307 141.27373 33725 ft 504 kts 322°
2026-05-07 22:20 7.88715 141.22866 33718 ft 504 kts 322°
2026-05-07 22:21 7.94118 141.18360 33709 ft 504 kts 322°
2026-05-07 22:21 7.99539 141.13838 33703 ft 505 kts 322°
2026-05-07 22:22 8.04960 141.09314 33701 ft 506 kts 322°
2026-05-07 22:22 8.10397 141.04774 33693 ft 507 kts 322°
2026-05-07 22:23 8.14909 141.01005 33693 ft 508 kts 322°
2026-05-07 22:23 8.21242 140.95712 33695 ft 509 kts 322°
2026-05-07 22:24 8.25811 140.91885 33696 ft 509 kts 322°
2026-05-07 22:24 8.31270 140.87324 33700 ft 510 kts 322°
2026-05-07 22:25 8.36742 140.82755 33703 ft 510 kts 322°
2026-05-07 22:25 8.42207 140.78184 33712 ft 510 kts 322°
2026-05-07 22:26 8.47675 140.73603 33719 ft 510 kts 321°
2026-05-07 22:26 8.53121 140.69045 33728 ft 509 kts 321°
2026-05-07 22:27 8.58570 140.64477 33738 ft 508 kts 321°
2026-05-07 22:27 8.64005 140.59921 33745 ft 506 kts 321°
2026-05-07 22:28 8.69408 140.55390 33756 ft 505 kts 321°
2026-05-07 22:28 8.74808 140.50862 33759 ft 504 kts 321°
2026-05-07 22:29 8.80198 140.46339 33765 ft 503 kts 321°
2026-05-07 22:29 8.85579 140.41823 33770 ft 503 kts 321°
2026-05-07 22:30 8.90955 140.37309 33775 ft 501 kts 320°
2026-05-07 22:30 8.96318 140.32805 33782 ft 500 kts 320°
2026-05-07 22:31 9.01659 140.28315 33787 ft 499 kts 320°
2026-05-07 22:31 9.06963 140.23856 33789 ft 498 kts 320°
2026-05-07 22:32 9.12286 140.19379 33792 ft 498 kts 320°
2026-05-07 22:32 9.17614 140.14897 33797 ft 498 kts 320°
2026-05-07 22:33 9.22942 140.10413 33803 ft 499 kts 320°
2026-05-07 22:33 9.28275 140.05922 33802 ft 499 kts 320°
2026-05-07 22:34 9.33602 140.01433 33806 ft 499 kts 320°
2026-05-07 22:34 9.38936 139.96938 33810 ft 499 kts 319°
2026-05-07 22:35 9.44277 139.92435 33811 ft 500 kts 319°
2026-05-07 22:35 9.49630 139.87920 33815 ft 500 kts 319°
2026-05-07 22:36 9.54972 139.83412 33815 ft 501 kts 319°
2026-05-07 22:36 9.60312 139.78904 33820 ft 500 kts 319°
2026-05-07 22:37 9.65672 139.74377 33821 ft 500 kts 319°
2026-05-07 22:37 9.71018 139.69861 33826 ft 500 kts 319°
2026-05-07 22:38 9.76355 139.65349 33826 ft 501 kts 319°
2026-05-07 22:38 9.81711 139.60821 33826 ft 500 kts 319°
2026-05-07 22:39 9.87050 139.56303 33830 ft 500 kts 319°
2026-05-07 22:39 9.92395 139.51781 33831 ft 500 kts 319°
2026-05-07 22:40 9.97731 139.47263 33833 ft 501 kts 319°
2026-05-07 22:40 10.03081 139.42731 33836 ft 501 kts 319°
2026-05-07 22:41 10.08438 139.38190 33841 ft 501 kts 319°
2026-05-07 22:41 10.13783 139.33659 33842 ft 502 kts 319°
2026-05-07 22:42 10.19143 139.29116 33843 ft 502 kts 319°
2026-05-07 22:42 10.24503 139.24565 33843 ft 502 kts 319°
2026-05-07 22:43 10.29861 139.20012 33843 ft 502 kts 318°
2026-05-07 22:43 10.35211 139.15467 33842 ft 502 kts 319°
2026-05-07 22:44 10.40566 139.10926 33845 ft 502 kts 318°
2026-05-07 22:44 10.45923 139.06368 33850 ft 502 kts 318°
2026-05-07 22:45 10.51268 139.01815 33850 ft 502 kts 318°
2026-05-07 22:45 10.56626 138.97254 33851 ft 502 kts 318°
2026-05-07 22:46 10.61944 138.92727 33850 ft 502 kts 318°
2026-05-07 22:46 10.67298 138.88173 33854 ft 502 kts 318°
2026-05-07 22:47 10.72651 138.83617 33854 ft 502 kts 317°
2026-05-07 22:47 10.78006 138.79043 33857 ft 503 kts 317°
2026-05-07 22:48 10.83369 138.74466 33856 ft 503 kts 318°
2026-05-07 22:48 10.88731 138.69896 33858 ft 503 kts 318°
2026-05-07 22:49 10.94085 138.65331 33858 ft 503 kts 318°
2026-05-07 22:49 10.99450 138.60741 33857 ft 503 kts 317°
2026-05-07 22:50 11.04805 138.56162 33861 ft 503 kts 317°
2026-05-07 22:50 11.10169 138.51575 33860 ft 503 kts 317°
2026-05-07 22:51 11.15532 138.46986 33863 ft 503 kts 317°
2026-05-07 22:51 11.20891 138.42402 33865 ft 503 kts 317°
2026-05-07 22:52 11.26245 138.37815 33868 ft 503 kts 317°
2026-05-07 22:52 11.31609 138.33218 33869 ft 503 kts 317°
2026-05-07 22:53 11.36963 138.28630 33867 ft 503 kts 317°
2026-05-07 22:53 11.42322 138.24035 33869 ft 503 kts 317°
2026-05-07 22:54 11.47678 138.19438 33871 ft 504 kts 317°
2026-05-07 22:54 11.53031 138.14842 33870 ft 504 kts 317°
2026-05-07 22:55 11.58401 138.10230 33873 ft 504 kts 317°
2026-05-07 22:55 11.63763 138.05623 33875 ft 504 kts 317°
2026-05-07 22:56 11.69125 138.01014 33878 ft 504 kts 317°
2026-05-07 22:56 11.74478 137.96407 33876 ft 504 kts 317°
2026-05-07 22:57 11.79843 137.91789 33879 ft 504 kts 317°
2026-05-07 22:57 11.85209 137.87167 33880 ft 504 kts 317°
2026-05-07 22:58 11.90536 137.82577 33875 ft 505 kts 317°
2026-05-07 22:58 11.95904 137.77951 33880 ft 505 kts 317°
2026-05-07 22:59 12.01263 137.73328 33879 ft 505 kts 317°
2026-05-07 22:59 12.06655 137.68674 33884 ft 505 kts 317°
2026-05-07 23:00 12.11984 137.64071 33884 ft 505 kts 317°
2026-05-07 23:00 12.17349 137.59437 33886 ft 505 kts 317°
2026-05-07 23:01 12.22715 137.54792 33883 ft 505 kts 317°
2026-05-07 23:01 12.28074 137.50153 33884 ft 505 kts 317°
2026-05-07 23:02 12.33436 137.45510 33887 ft 506 kts 317°
2026-05-07 23:02 12.38804 137.40859 33892 ft 505 kts 317°
2026-05-07 23:03 12.44170 137.36211 33888 ft 504 kts 317°
2026-05-07 23:03 12.49518 137.31582 33891 ft 504 kts 317°
2026-05-07 23:04 12.54862 137.26949 33897 ft 503 kts 317°
2026-05-07 23:04 12.60189 137.22322 33893 ft 502 kts 317°
2026-05-07 23:05 12.65505 137.17707 33892 ft 501 kts 317°
2026-05-07 23:05 12.70815 137.13092 33891 ft 500 kts 317°
2026-05-07 23:06 12.76123 137.08484 33890 ft 500 kts 317°
2026-05-07 23:06 12.81421 137.03874 33891 ft 499 kts 317°
2026-05-07 23:07 12.86674 136.99300 33896 ft 498 kts 317°
2026-05-07 23:07 12.91958 136.94700 33899 ft 498 kts 317°
2026-05-07 23:08 12.97229 136.90106 33898 ft 498 kts 317°
2026-05-07 23:08 13.02504 136.85505 33900 ft 497 kts 317°
2026-05-07 23:09 13.07768 136.80914 33900 ft 497 kts 317°
2026-05-07 23:09 13.12179 136.77066 33900 ft 497 kts 317°
2026-05-07 23:10 13.17449 136.72462 33899 ft 497 kts 317°
2026-05-07 23:10 13.22664 136.67905 33900 ft 496 kts 317°
2026-05-07 23:11 13.27915 136.63314 33903 ft 495 kts 317°
2026-05-07 23:11 13.33151 136.58734 33903 ft 495 kts 317°
2026-05-07 23:12 13.38397 136.54142 33909 ft 495 kts 317°
2026-05-07 23:12 13.43630 136.49558 33907 ft 494 kts 317°
2026-05-07 23:13 13.48861 136.44974 33905 ft 494 kts 317°
2026-05-07 23:13 13.54094 136.40386 33907 ft 494 kts 317°
2026-05-07 23:14 13.59327 136.35793 33914 ft 494 kts 317°
2026-05-07 23:14 13.64554 136.31203 33911 ft 495 kts 317°
2026-05-07 23:15 13.69785 136.26609 33914 ft 495 kts 317°
2026-05-07 23:15 13.75018 136.22008 33917 ft 495 kts 317°
2026-05-07 23:16 13.80247 136.17410 33919 ft 495 kts 317°
2026-05-07 23:16 13.85479 136.12807 33920 ft 495 kts 317°
2026-05-07 23:17 13.90710 136.08200 33917 ft 495 kts 317°
2026-05-07 23:17 13.95937 136.03593 33919 ft 495 kts 317°
2026-05-07 23:18 14.01308 135.99155 33923 ft 496 kts 323°
2026-05-07 23:18 14.07030 135.95172 33924 ft 496 kts 324°
2026-05-07 23:19 14.12779 135.91252 33920 ft 496 kts 324°
2026-05-07 23:19 14.18499 135.87353 33927 ft 496 kts 324°
2026-05-07 23:20 14.24249 135.83419 33927 ft 496 kts 324°
2026-05-07 23:20 14.29989 135.79486 33927 ft 495 kts 324°
2026-05-07 23:21 14.35724 135.75553 33927 ft 495 kts 324°
2026-05-07 23:21 14.41453 135.71621 33924 ft 495 kts 324°
2026-05-07 23:22 14.47192 135.67681 33929 ft 494 kts 324°
2026-05-07 23:22 14.52902 135.63758 33930 ft 494 kts 324°
2026-05-07 23:23 14.58629 135.59822 33935 ft 494 kts 324°
2026-05-07 23:23 14.64344 135.55890 33927 ft 493 kts 324°
2026-05-07 23:24 14.70050 135.51963 33932 ft 493 kts 324°
2026-05-07 23:24 14.75761 135.48030 33933 ft 493 kts 324°
2026-05-07 23:25 14.81470 135.44095 33933 ft 493 kts 324°
2026-05-07 23:25 14.87167 135.40166 33931 ft 493 kts 324°
2026-05-07 23:26 14.92869 135.36231 33936 ft 493 kts 324°
2026-05-07 23:26 14.98582 135.32287 33939 ft 493 kts 324°
2026-05-07 23:27 15.07129 135.26380 33935 ft 493 kts 324°
2026-05-07 23:27 15.12833 135.22436 33936 ft 493 kts 324°
2026-05-07 23:28 15.18542 135.18484 33946 ft 493 kts 324°
2026-05-07 23:28 15.24241 135.14537 33946 ft 493 kts 323°
2026-05-07 23:29 15.29938 135.10590 33941 ft 493 kts 323°
2026-05-07 23:29 15.35649 135.06629 33945 ft 493 kts 323°
2026-05-07 23:30 15.41342 135.02678 33944 ft 493 kts 323°
2026-05-07 23:30 15.47047 134.98717 33943 ft 493 kts 323°
2026-05-07 23:31 15.52703 134.94786 33944 ft 493 kts 323°
2026-05-07 23:31 15.58393 134.90830 33942 ft 492 kts 323°
2026-05-07 23:32 15.64087 134.86869 33945 ft 492 kts 323°
2026-05-07 23:32 15.69758 134.82920 33948 ft 491 kts 323°
2026-05-07 23:33 15.75434 134.78965 33951 ft 491 kts 323°
2026-05-07 23:33 15.81100 134.75014 33951 ft 491 kts 323°
2026-05-07 23:34 15.86769 134.71059 33949 ft 490 kts 323°
2026-05-07 23:34 15.92433 134.67104 33951 ft 490 kts 323°
2026-05-07 23:35 15.98092 134.63150 33953 ft 490 kts 323°
2026-05-07 23:35 16.03756 134.59190 33956 ft 490 kts 323°
2026-05-07 23:36 16.09411 134.55233 33954 ft 490 kts 323°
2026-05-07 23:36 16.15069 134.51273 33954 ft 490 kts 323°
2026-05-07 23:37 16.20729 134.47307 33956 ft 490 kts 323°
2026-05-07 23:37 16.26388 134.43339 33958 ft 490 kts 323°
2026-05-07 23:38 16.32041 134.39373 33956 ft 490 kts 323°
2026-05-07 23:38 16.37698 134.35402 33959 ft 491 kts 323°
2026-05-07 23:39 16.43362 134.31422 33964 ft 491 kts 323°
2026-05-07 23:39 16.49019 134.27444 33962 ft 491 kts 323°
2026-05-07 23:40 16.54671 134.23467 33957 ft 491 kts 322°
2026-05-07 23:40 16.60337 134.19477 33966 ft 491 kts 322°
2026-05-07 23:41 16.65991 134.15493 33964 ft 491 kts 323°
2026-05-07 23:41 16.71646 134.11506 33964 ft 491 kts 323°
2026-05-07 23:42 16.77295 134.07519 33963 ft 490 kts 323°
2026-05-07 23:42 16.82952 134.03524 33965 ft 490 kts 323°
2026-05-07 23:43 16.88600 133.99532 33965 ft 490 kts 323°
2026-05-07 23:43 16.94247 133.95538 33966 ft 490 kts 323°
2026-05-07 23:44 16.99895 133.91540 33968 ft 490 kts 323°
2026-05-07 23:44 17.05545 133.87538 33959 ft 490 kts 323°
2026-05-07 23:45 17.11179 133.83546 33974 ft 490 kts 323°
2026-05-07 23:45 17.16790 133.79566 33978 ft 490 kts 323°
2026-05-07 23:46 17.22460 133.75541 33986 ft 490 kts 323°
2026-05-07 23:46 17.28093 133.71539 33983 ft 490 kts 323°
2026-05-07 23:47 17.33742 133.67524 33971 ft 490 kts 323°
2026-05-07 23:47 17.39340 133.63541 33972 ft 490 kts 323°
2026-05-07 23:48 17.44965 133.59535 33978 ft 490 kts 323°
2026-05-07 23:48 17.50602 133.55519 33987 ft 490 kts 323°
2026-05-07 23:49 17.56239 133.51500 33977 ft 490 kts 323°
2026-05-07 23:49 17.61877 133.47476 33980 ft 490 kts 323°
2026-05-07 23:50 17.67506 133.43456 33982 ft 490 kts 323°
2026-05-07 23:50 17.73140 133.39429 33983 ft 490 kts 323°
2026-05-07 23:51 17.78789 133.35388 33984 ft 490 kts 323°
2026-05-07 23:51 17.84413 133.31363 33986 ft 490 kts 323°
2026-05-07 23:52 17.90057 133.27319 33986 ft 490 kts 323°
2026-05-07 23:52 17.95692 133.23279 33987 ft 490 kts 323°
2026-05-07 23:53 18.01321 133.19240 33987 ft 490 kts 323°
2026-05-07 23:53 18.06955 133.15194 33988 ft 490 kts 323°
2026-05-07 23:54 18.12582 133.11150 33991 ft 490 kts 323°
2026-05-07 23:54 18.17258 133.07788 33992 ft 490 kts 323°
2026-05-07 23:55 18.22884 133.03739 33990 ft 490 kts 323°
2026-05-07 23:55 18.29415 132.99033 33993 ft 489 kts 323°
2026-05-07 23:56 18.34112 132.95647 33992 ft 489 kts 323°
2026-05-07 23:56 18.39723 132.91599 33992 ft 489 kts 323°
2026-05-07 23:57 18.45342 132.87542 33986 ft 489 kts 323°
2026-05-07 23:57 18.50944 132.83494 33990 ft 488 kts 323°
2026-05-07 23:58 18.56545 132.79443 33987 ft 488 kts 324°
2026-05-07 23:58 18.62143 132.75392 33990 ft 488 kts 324°
2026-05-07 23:59 18.67734 132.71342 33991 ft 488 kts 324°
2026-05-07 23:59 18.73332 132.67284 33991 ft 488 kts 324°
2026-05-08 00:00 18.78917 132.63231 33992 ft 488 kts 324°
2026-05-08 00:00 18.84520 132.59163 33993 ft 488 kts 324°
2026-05-08 00:01 18.90106 132.55103 33994 ft 488 kts 324°
2026-05-08 00:01 18.95692 132.51040 33997 ft 488 kts 324°
2026-05-08 00:02 19.01285 132.46969 33996 ft 488 kts 324°
2026-05-08 00:02 19.06880 132.42893 33995 ft 488 kts 324°
2026-05-08 00:03 19.12468 132.38818 33997 ft 488 kts 324°
2026-05-08 00:03 19.18051 132.34744 33995 ft 488 kts 324°
2026-05-08 00:04 19.23624 132.30674 33994 ft 488 kts 324°
2026-05-08 00:04 19.29171 132.26619 33997 ft 488 kts 324°
2026-05-08 00:05 19.34758 132.22531 33998 ft 488 kts 324°
2026-05-08 00:05 19.40342 132.18442 33998 ft 488 kts 324°
2026-05-08 00:06 19.45912 132.14360 34000 ft 488 kts 324°
2026-05-08 00:06 19.51500 132.10262 33999 ft 488 kts 324°
2026-05-08 00:07 19.57079 132.06166 34000 ft 488 kts 324°
2026-05-08 00:07 19.62661 132.02065 33999 ft 488 kts 324°
2026-05-08 00:08 19.68242 131.97961 34003 ft 488 kts 324°
2026-05-08 00:08 19.73822 131.93854 34000 ft 488 kts 324°
2026-05-08 00:09 19.79400 131.89745 34002 ft 488 kts 324°
2026-05-08 00:09 19.84983 131.85629 34003 ft 488 kts 324°
2026-05-08 00:10 19.90559 131.81515 34003 ft 488 kts 324°
2026-05-08 00:10 19.96141 131.77391 34003 ft 489 kts 324°
2026-05-08 00:11 20.01719 131.73268 34006 ft 489 kts 324°
2026-05-08 00:11 20.07309 131.69133 34004 ft 489 kts 324°
2026-05-08 00:12 20.12862 131.65021 34007 ft 489 kts 324°
2026-05-08 00:12 20.18446 131.60883 34009 ft 489 kts 324°
2026-05-08 00:13 20.24025 131.56745 34007 ft 490 kts 324°
2026-05-08 00:13 20.29612 131.52597 34007 ft 490 kts 324°
2026-05-08 00:14 20.35210 131.48436 34008 ft 490 kts 324°
2026-05-08 00:14 20.40801 131.44277 34012 ft 490 kts 324°
2026-05-08 00:15 20.46387 131.40119 34009 ft 490 kts 324°
2026-05-08 00:15 20.51973 131.35956 34010 ft 490 kts 324°
2026-05-08 00:16 20.57570 131.31782 34010 ft 491 kts 324°
2026-05-08 00:16 20.63162 131.27607 34007 ft 491 kts 324°
2026-05-08 00:17 20.68762 131.23423 34007 ft 491 kts 324°
2026-05-08 00:17 20.74356 131.19239 34007 ft 491 kts 324°
2026-05-08 00:18 20.79961 131.15043 34011 ft 491 kts 324°
2026-05-08 00:18 20.85555 131.10852 34006 ft 491 kts 324°
2026-05-08 00:19 20.91156 131.06652 34007 ft 492 kts 324°
2026-05-08 00:19 20.96757 131.02447 34005 ft 492 kts 324°
2026-05-08 00:20 21.02165 130.97966 34004 ft 491 kts 319°
2026-05-08 00:20 21.07315 130.93168 34011 ft 491 kts 318°
2026-05-08 00:21 21.12445 130.88328 34011 ft 491 kts 318°
2026-05-08 00:21 21.17570 130.83490 34010 ft 491 kts 318°
2026-05-08 00:22 21.22709 130.78644 34009 ft 492 kts 318°
2026-05-08 00:22 21.27850 130.73795 34012 ft 493 kts 318°
2026-05-08 00:23 21.32993 130.68940 34004 ft 493 kts 319°
2026-05-08 00:23 21.38107 130.64106 34013 ft 493 kts 319°
2026-05-08 00:24 21.43258 130.59233 34012 ft 493 kts 319°
2026-05-08 00:24 21.48406 130.54358 34013 ft 494 kts 318°
2026-05-08 00:25 21.53554 130.49478 34012 ft 493 kts 318°
2026-05-08 00:25 21.58695 130.44601 34009 ft 493 kts 318°
2026-05-08 00:26 21.63842 130.39712 34015 ft 493 kts 318°
2026-05-08 00:26 21.68981 130.34827 34013 ft 493 kts 318°
2026-05-08 00:27 21.74113 130.29943 34016 ft 493 kts 318°
2026-05-08 00:27 21.79246 130.25054 34015 ft 493 kts 318°
2026-05-08 00:28 21.84378 130.20160 34018 ft 492 kts 318°
2026-05-08 00:28 21.89498 130.15272 34012 ft 492 kts 317°
2026-05-08 00:29 21.94609 130.10389 34016 ft 491 kts 317°
2026-05-08 00:29 21.99712 130.05509 34011 ft 490 kts 317°
2026-05-08 00:30 22.04808 130.00630 34015 ft 490 kts 317°
2026-05-08 00:30 22.09905 129.95746 34016 ft 489 kts 317°
2026-05-08 00:31 22.14981 129.90875 34021 ft 488 kts 317°
2026-05-08 00:31 22.20055 129.86004 34018 ft 488 kts 317°
2026-05-08 00:32 22.25115 129.81140 34010 ft 488 kts 317°
2026-05-08 00:32 22.30184 129.76263 34021 ft 487 kts 317°
2026-05-08 00:33 22.35231 129.71402 34022 ft 487 kts 317°
2026-05-08 00:33 22.40287 129.66527 34020 ft 486 kts 317°
2026-05-08 00:34 22.45327 129.61663 34025 ft 486 kts 316°
2026-05-08 00:34 22.50368 129.56793 34021 ft 486 kts 316°
2026-05-08 00:35 22.55413 129.51913 34019 ft 486 kts 316°
2026-05-08 00:35 22.60428 129.47058 34015 ft 486 kts 316°
2026-05-08 00:36 22.65466 129.42175 34014 ft 486 kts 316°
2026-05-08 00:36 22.70504 129.37289 34024 ft 486 kts 316°
2026-05-08 00:37 22.75527 129.32410 34015 ft 486 kts 316°
2026-05-08 00:38 22.83075 129.25071 34008 ft 486 kts 316°
2026-05-08 00:38 22.88097 129.20182 34014 ft 485 kts 316°
2026-05-08 00:39 22.93122 129.15285 34024 ft 485 kts 316°
2026-05-08 00:39 22.98113 129.10367 34021 ft 484 kts 313°
2026-05-08 00:40 23.02129 129.04571 34022 ft 480 kts 298°
2026-05-08 00:40 23.05282 128.98186 34011 ft 480 kts 296°
2026-05-08 00:41 23.07844 128.92778 34010 ft 480 kts 296°
2026-05-08 00:41 23.10875 128.86377 34011 ft 480 kts 296°
2026-05-08 00:42 23.13960 128.79900 34019 ft 479 kts 296°
2026-05-08 00:42 23.17006 128.73518 34022 ft 479 kts 296°
2026-05-08 00:43 23.20074 128.67081 34028 ft 479 kts 296°
2026-05-08 00:43 23.23130 128.60660 34023 ft 478 kts 296°
2026-05-08 00:44 23.26187 128.54226 34030 ft 478 kts 296°
2026-05-08 00:44 23.29230 128.47813 34022 ft 478 kts 296°
2026-05-08 00:45 23.32278 128.41382 34013 ft 477 kts 296°
2026-05-08 00:45 23.35314 128.34967 34015 ft 477 kts 296°
2026-05-08 00:46 23.38353 128.28540 34015 ft 477 kts 296°
2026-05-08 00:46 23.41384 128.22117 34014 ft 477 kts 296°
2026-05-08 00:47 23.44412 128.15695 34014 ft 477 kts 296°
2026-05-08 00:47 23.47436 128.09273 34016 ft 477 kts 296°
2026-05-08 00:48 23.50464 128.02833 34016 ft 477 kts 296°
2026-05-08 00:48 23.53480 127.96410 34015 ft 477 kts 296°
2026-05-08 00:49 23.56501 127.89966 34013 ft 477 kts 296°
2026-05-08 00:49 23.59499 127.83565 34016 ft 477 kts 296°
2026-05-08 00:50 23.62529 127.77087 34015 ft 477 kts 296°
2026-05-08 00:50 23.65544 127.70631 34016 ft 477 kts 296°
2026-05-08 00:51 23.68532 127.64225 34014 ft 477 kts 296°
2026-05-08 00:51 23.71541 127.57766 34017 ft 477 kts 296°
2026-05-08 00:52 23.74541 127.51316 34017 ft 477 kts 295°
2026-05-08 00:52 23.77534 127.44872 34012 ft 477 kts 295°
2026-05-08 00:53 23.80534 127.38405 34016 ft 476 kts 295°
2026-05-08 00:53 23.83527 127.31945 34011 ft 476 kts 295°
2026-05-08 00:54 23.86512 127.25492 34014 ft 476 kts 295°
2026-05-08 00:54 23.89491 127.19045 34014 ft 476 kts 295°
2026-05-08 00:55 23.92467 127.12594 34014 ft 475 kts 295°
2026-05-08 00:55 23.95443 127.06135 34012 ft 475 kts 295°
2026-05-08 00:56 23.98406 126.99697 34013 ft 474 kts 295°
2026-05-08 00:56 24.01367 126.93251 34012 ft 474 kts 295°
2026-05-08 00:57 24.04323 126.86809 34014 ft 474 kts 295°
2026-05-08 00:57 24.07279 126.80359 34008 ft 473 kts 295°
2026-05-08 00:58 24.10225 126.73922 34011 ft 473 kts 295°
2026-05-08 00:58 24.13170 126.67491 34014 ft 472 kts 295°
2026-05-08 00:59 24.16189 126.61109 34012 ft 472 kts 296°
2026-05-08 00:59 24.19232 126.54735 34014 ft 472 kts 296°
2026-05-08 01:00 24.22251 126.48372 34012 ft 471 kts 296°
2026-05-08 01:00 24.25268 126.41981 34012 ft 471 kts 295°
2026-05-08 01:01 24.28274 126.35601 34013 ft 471 kts 295°
2026-05-08 01:01 24.31270 126.29231 34014 ft 471 kts 295°
2026-05-08 01:02 24.34267 126.22854 34015 ft 470 kts 295°
2026-05-08 01:02 24.37264 126.16469 34014 ft 470 kts 295°
2026-05-08 01:03 24.40251 126.10097 34011 ft 470 kts 295°
2026-05-08 01:03 24.43237 126.03716 34016 ft 470 kts 295°
2026-05-08 01:04 24.46217 125.97343 34018 ft 470 kts 295°
2026-05-08 01:04 24.49196 125.90959 34011 ft 470 kts 295°
2026-05-08 01:05 24.52174 125.84572 34010 ft 470 kts 295°
2026-05-08 01:05 24.55143 125.78192 34013 ft 469 kts 295°
2026-05-08 01:06 24.58094 125.71844 34012 ft 469 kts 295°
2026-05-08 01:06 24.61059 125.65457 34014 ft 469 kts 295°
2026-05-08 01:07 24.64020 125.59071 34006 ft 469 kts 295°
2026-05-08 01:07 24.66979 125.52680 34004 ft 469 kts 295°
2026-05-08 01:08 24.69932 125.46293 33999 ft 469 kts 295°
2026-05-08 01:08 24.72772 125.40141 33996 ft 468 kts 295°
2026-05-08 01:09 24.75719 125.33746 33993 ft 468 kts 295°
2026-05-08 01:09 24.77920 125.27051 33995 ft 465 kts 281°
2026-05-08 01:10 24.78969 125.20022 33992 ft 465 kts 277°
2026-05-08 01:10 24.79826 125.12965 33992 ft 465 kts 277°
2026-05-08 01:11 24.80665 125.05914 33993 ft 465 kts 277°
2026-05-08 01:11 24.81522 124.98856 33997 ft 466 kts 277°
2026-05-08 01:12 24.82388 124.91786 34000 ft 465 kts 277°
2026-05-08 01:12 24.83255 124.84731 34001 ft 465 kts 277°
2026-05-08 01:13 24.84113 124.77711 33999 ft 465 kts 277°
2026-05-08 01:13 24.84970 124.70608 33999 ft 466 kts 277°
2026-05-08 01:14 24.85818 124.63564 34003 ft 466 kts 277°
2026-05-08 01:14 24.86668 124.56494 34002 ft 466 kts 277°
2026-05-08 01:15 24.87517 124.49409 34006 ft 467 kts 277°
2026-05-08 01:15 24.88364 124.42312 34002 ft 467 kts 277°
2026-05-08 01:16 24.89208 124.35207 34010 ft 468 kts 277°
2026-05-08 01:16 24.90048 124.28101 34008 ft 469 kts 277°
2026-05-08 01:17 24.90887 124.20978 34010 ft 469 kts 277°
2026-05-08 01:17 24.91724 124.13841 34011 ft 470 kts 277°
2026-05-08 01:18 24.92558 124.06705 34008 ft 470 kts 277°
2026-05-08 01:18 24.93390 123.99550 34007 ft 471 kts 277°
2026-05-08 01:19 24.94181 123.92392 34009 ft 471 kts 276°
2026-05-08 01:19 24.94924 123.85215 34009 ft 472 kts 276°
2026-05-08 01:20 24.95669 123.78032 34010 ft 472 kts 276°
2026-05-08 01:20 24.96421 123.70845 34007 ft 472 kts 276°
2026-05-08 01:21 24.97173 123.63659 34008 ft 472 kts 276°
2026-05-08 01:21 24.97921 123.56473 34013 ft 472 kts 276°
2026-05-08 01:22 24.98666 123.49286 34013 ft 472 kts 276°
2026-05-08 01:22 24.99408 123.42089 34012 ft 472 kts 276°
2026-05-08 01:23 25.00145 123.34907 34013 ft 472 kts 276°
2026-05-08 01:23 25.00878 123.27731 34010 ft 471 kts 276°
2026-05-08 01:24 25.01607 123.20557 34012 ft 471 kts 276°
2026-05-08 01:24 25.02337 123.13377 34011 ft 471 kts 276°
2026-05-08 01:25 25.03056 123.06199 34011 ft 470 kts 276°
2026-05-08 01:25 25.03769 122.99032 34013 ft 470 kts 276°
2026-05-08 01:26 25.04365 122.93080 34014 ft 470 kts 276°
2026-05-08 01:26 25.05075 122.85920 34015 ft 470 kts 276°
2026-05-08 01:27 25.05783 122.78758 34016 ft 469 kts 276°
2026-05-08 01:27 25.06486 122.71601 34019 ft 469 kts 276°
2026-05-08 01:28 25.07186 122.64453 34017 ft 469 kts 276°
2026-05-08 01:28 25.07994 122.56155 34020 ft 468 kts 276°
2026-05-08 01:29 25.08573 122.50187 34017 ft 467 kts 277°
2026-05-08 01:29 25.09259 122.43071 34023 ft 467 kts 277°
2026-05-08 01:30 25.09943 122.35952 34028 ft 466 kts 277°
2026-05-08 01:30 25.10974 122.28965 34026 ft 465 kts 289°
2026-05-08 01:31 25.13959 122.22667 34007 ft 463 kts 300°
2026-05-08 01:31 25.15600 122.19639 33483 ft 459 kts 300°
2026-05-08 01:31 25.17238 122.16608 32646 ft 461 kts 300°
2026-05-08 01:31 25.18880 122.13555 31931 ft 462 kts 300°
2026-05-08 01:32 25.20514 122.10510 31357 ft 460 kts 300°
2026-05-08 01:32 25.22137 122.07482 30807 ft 457 kts 300°
2026-05-08 01:32 25.23750 122.04468 30286 ft 455 kts 300°
2026-05-08 01:32 25.25355 122.01464 29716 ft 452 kts 300°
2026-05-08 01:33 25.26943 121.98493 29145 ft 449 kts 300°
2026-05-08 01:33 25.28524 121.95531 28607 ft 445 kts 300°
2026-05-08 01:33 25.30088 121.92599 28061 ft 442 kts 300°
2026-05-08 01:33 25.31642 121.89683 27539 ft 438 kts 300°
2026-05-08 01:34 25.33182 121.86791 27013 ft 435 kts 300°
2026-05-08 01:34 25.34711 121.83920 26484 ft 432 kts 300°
2026-05-08 01:34 25.36231 121.81063 25958 ft 429 kts 299°
2026-05-08 01:34 25.37739 121.78226 25447 ft 427 kts 299°
2026-05-08 01:35 25.39237 121.75408 24967 ft 424 kts 299°
2026-05-08 01:35 25.40723 121.72610 24472 ft 421 kts 299°
2026-05-08 01:35 25.42195 121.69837 23958 ft 411 kts 299°
2026-05-08 01:35 25.43624 121.67146 22817 ft 404 kts 298°
2026-05-08 01:36 25.45068 121.64419 21846 ft 413 kts 298°
2026-05-08 01:36 25.46365 121.61626 21425 ft 404 kts 290°
2026-05-08 01:36 25.47005 121.58643 21010 ft 396 kts 274°
2026-05-08 01:36 25.46810 121.55633 20504 ft 392 kts 257°
2026-05-08 01:37 25.45818 121.52837 19993 ft 391 kts 241°
2026-05-08 01:37 25.44132 121.50485 19492 ft 392 kts 225°
2026-05-08 01:37 25.42020 121.48577 18986 ft 390 kts 223°
2026-05-08 01:37 25.40108 121.46488 18487 ft 385 kts 230°
2026-05-08 01:38 25.38367 121.44310 17984 ft 382 kts 231°
2026-05-08 01:38 25.36658 121.42132 17444 ft 378 kts 231°
2026-05-08 01:38 25.34919 121.39913 16940 ft 375 kts 231°
2026-05-08 01:38 25.33218 121.37741 16410 ft 372 kts 231°
2026-05-08 01:39 25.31557 121.35622 15915 ft 369 kts 231°
2026-05-08 01:39 25.29883 121.33489 15405 ft 366 kts 231°
2026-05-08 01:39 25.28229 121.31378 14919 ft 362 kts 231°
2026-05-08 01:39 25.26585 121.29283 14445 ft 359 kts 231°
2026-05-08 01:40 25.24956 121.27207 13963 ft 356 kts 231°
2026-05-08 01:40 25.23343 121.25154 13493 ft 353 kts 231°
2026-05-08 01:40 25.21736 121.23112 12924 ft 351 kts 230°
2026-05-08 01:40 25.20144 121.21086 12376 ft 349 kts 230°
2026-05-08 01:41 25.18559 121.19069 11840 ft 346 kts 230°
2026-05-08 01:41 25.16984 121.17066 11276 ft 344 kts 230°
2026-05-08 01:41 25.15429 121.15090 10895 ft 337 kts 230°
2026-05-08 01:41 25.13916 121.13171 10693 ft 325 kts 230°
2026-05-08 01:42 25.12461 121.11326 10511 ft 313 kts 230°
2026-05-08 01:42 25.11059 121.09549 10333 ft 302 kts 230°
2026-05-08 01:42 25.09709 121.07839 10154 ft 291 kts 230°
2026-05-08 01:42 25.08408 121.06184 9987 ft 281 kts 230°
2026-05-08 01:43 25.07138 121.04568 9667 ft 276 kts 230°
2026-05-08 01:43 25.05882 121.02969 9314 ft 275 kts 230°
2026-05-08 01:43 25.04631 121.01379 9077 ft 273 kts 230°
2026-05-08 01:43 25.03390 120.99807 8999 ft 271 kts 230°
2026-05-08 01:44 25.02146 120.98237 8834 ft 270 kts 229°
2026-05-08 01:44 25.00911 120.96676 8458 ft 270 kts 230°
2026-05-08 01:44 24.99684 120.95116 8122 ft 268 kts 230°
2026-05-08 01:44 24.98461 120.93563 7757 ft 268 kts 229°
2026-05-08 01:45 24.97239 120.92010 7377 ft 267 kts 229°
2026-05-08 01:45 24.96019 120.90462 7002 ft 266 kts 229°
2026-05-08 01:45 24.94802 120.88927 6623 ft 265 kts 228°
2026-05-08 01:45 24.93402 120.87619 6222 ft 266 kts 210°
2026-05-08 01:46 24.91631 120.87064 5775 ft 269 kts 182°
2026-05-08 01:46 24.89800 120.87487 5377 ft 273 kts 156°
2026-05-08 01:46 24.88335 120.88801 5009 ft 275 kts 128°
2026-05-08 01:46 24.87580 120.90722 4647 ft 276 kts 99°
2026-05-08 01:47 24.87720 120.92778 4469 ft 268 kts 72°
2026-05-08 01:47 24.88640 120.94503 4311 ft 259 kts 46°
2026-05-08 01:47 24.89946 120.95800 4194 ft 248 kts 44°
2026-05-08 01:48 24.91213 120.99022 4012 ft 221 kts 90°
2026-05-08 01:48 24.91169 121.00685 4012 ft 216 kts 94°
2026-05-08 01:48 24.91127 121.02336 4000 ft 217 kts 84°
2026-05-08 01:48 24.91638 121.03885 4013 ft 216 kts 58°
2026-05-08 01:49 24.92570 121.05185 4009 ft 217 kts 48°
2026-05-08 01:49 24.93585 121.06420 3835 ft 216 kts 49°
2026-05-08 01:49 24.94561 121.07671 3585 ft 214 kts 50°
2026-05-08 01:49 24.95520 121.08903 3257 ft 208 kts 49°
2026-05-08 01:50 24.96437 121.10067 2971 ft 194 kts 49°
2026-05-08 01:50 24.97290 121.11151 2718 ft 181 kts 49°
2026-05-08 01:50 24.98081 121.12158 2475 ft 166 kts 50°
2026-05-08 01:50 24.98796 121.13071 2288 ft 150 kts 48°
2026-05-08 01:51 24.99449 121.13904 2084 ft 137 kts 48°
2026-05-08 01:51 25.00061 121.14682 1921 ft 134 kts 48°
2026-05-08 01:51 25.00664 121.15450 1748 ft 135 kts 48°
2026-05-08 01:51 25.01273 121.16223 1578 ft 132 kts 49°
2026-05-08 01:52 25.01878 121.16994 1395 ft 130 kts 49°
2026-05-08 01:52 25.02463 121.17740 1231 ft 131 kts 50°
2026-05-08 01:52 25.03068 121.18514 1064 ft 133 kts 47°
2026-05-08 01:52 25.03670 121.19278 895 ft 135 kts 48°
2026-05-08 01:53 25.04289 121.20069 706 ft 133 kts 46°
2026-05-08 01:53 25.04876 121.20817 539 ft 130 kts 46°
2026-05-08 01:53 25.05471 121.21570 380 ft 130 kts 46°
2026-05-08 01:53 25.06057 121.22314 178 ft 127 kts 47°
2026-05-08 01:54 25.06623 121.23040 109 ft 119 kts 46°
2026-05-08 01:54 25.07103 121.23647 103 ft 76 kts 49°
2026-05-08 01:54 25.07284 121.23876 100 ft 31 kts 49°
2026-05-08 01:54 25.07413 121.24038 101 ft 26 kts 49°
2026-05-08 01:55 25.07546 121.24164 101 ft 24 kts 28°
2026-05-08 01:55 25.07684 121.24225 106 ft 14 kts 20°
2026-05-08 01:55 25.07769 121.24235 105 ft 7 kts 328°
2026-05-08 01:55 25.07802 121.24195 106 ft 8 kts 318°
2026-05-08 01:56 25.07852 121.24147 106 ft 11 kts 319°
2026-05-08 01:56 25.07863 121.24137 107 ft 0 kts 319°